Time,TemperatureF,DewpointF,PressureIn,WindDirection,WindDirectionDegrees,WindSpeedMPH,WindSpeedGustMPH,Humidity,HourlyPrecipIn,Conditions,Clouds,dailyrainin,SoftwareType,DateUTC
2013-03-13 00:00:00,27.7,19.9,30.10,WNW,294,17.0,27.0,72,0.00,,---,0.00,VWS V14.01,2013-03-13 05:00:00,
2013-03-13 00:01:00,27.7,19.9,30.10,WNW,294,17.0,27.0,72,0.00,,---,0.00,VWS V14.01,2013-03-13 05:01:00,
2013-03-13 00:03:00,27.8,20.0,30.10,WNW,300,12.0,20.0,72,0.00,,---,0.00,VWS V14.01,2013-03-13 05:03:00,
2013-03-13 00:04:00,27.8,20.0,30.10,WNW,298,11.0,20.0,72,0.00,,---,0.00,VWS V14.01,2013-03-13 05:04:00,
2013-03-13 00:05:00,27.8,20.0,30.10,NNW,334,19.0,20.0,72,0.00,,---,0.00,VWS V14.01,2013-03-13 05:05:00,
2013-03-13 00:06:00,27.8,20.0,30.10,NNW,334,19.0,20.0,72,0.00,,---,0.00,VWS V14.01,2013-03-13 05:06:00,
2013-03-13 00:08:00,27.9,20.1,30.10,WNW,302,19.0,20.0,72,0.00,,---,0.00,VWS V14.01,2013-03-13 05:08:00,
2013-03-13 00:09:00,27.9,20.1,30.10,NW,304,14.0,20.0,72,0.00,,---,0.00,VWS V14.01,2013-03-13 05:09:00,
2013-03-13 00:11:00,27.9,20.1,30.10,WNW,300,13.0,20.0,72,0.00,,---,0.00,VWS V14.01,2013-03-13 05:11:00,
2013-03-13 00:12:00,27.9,20.1,30.10,West,276,12.0,20.0,72,0.00,,---,0.00,VWS V14.01,2013-03-13 05:12:00,
2013-03-13 00:13:00,27.9,20.1,30.10,WNW,286,13.0,20.0,72,0.00,,---,0.00,VWS V14.01,2013-03-13 05:13:00,
2013-03-13 00:15:00,27.9,20.1,30.10,WNW,298,14.0,20.0,72,0.00,,---,0.00,VWS V14.01,2013-03-13 05:15:00,
2013-03-13 00:16:00,27.8,20.0,30.10,WNW,292,12.0,20.0,72,0.00,,---,0.00,VWS V14.01,2013-03-13 05:16:00,
2013-03-13 00:17:00,27.8,20.3,30.10,WNW,286,14.0,20.0,73,0.00,,---,0.00,VWS V14.01,2013-03-13 05:17:00,
2013-03-13 00:18:00,27.8,20.3,30.10,WNW,292,13.0,20.0,73,0.00,,---,0.00,VWS V14.01,2013-03-13 05:18:00,
2013-03-13 00:20:00,27.7,20.2,30.10,West,281,14.0,20.0,73,0.00,,---,0.00,VWS V14.01,2013-03-13 05:20:00,
2013-03-13 00:21:00,27.7,20.2,30.10,WNW,294,16.0,20.0,73,0.00,,---,0.00,VWS V14.01,2013-03-13 05:21:00,
2013-03-13 00:22:00,27.7,20.2,30.10,WNW,294,14.0,20.0,73,0.00,,---,0.00,VWS V14.01,2013-03-13 05:22:00,
2013-03-13 00:23:00,27.7,20.2,30.10,WNW,296,16.0,20.0,73,0.00,,---,0.00,VWS V14.01,2013-03-13 05:23:00,
2013-03-13 00:25:00,27.6,20.1,30.10,WNW,294,21.0,22.0,73,0.00,,---,0.00,VWS V14.01,2013-03-13 05:25:00,
2013-03-13 00:27:00,27.6,20.1,30.10,WNW,292,22.0,22.0,73,0.00,,---,0.00,VWS V14.01,2013-03-13 05:27:00,
2013-03-13 00:28:00,27.5,20.0,30.10,WNW,295,20.0,22.0,73,0.00,,---,0.00,VWS V14.01,2013-03-13 05:28:00,
2013-03-13 00:30:00,27.5,20.0,30.10,WNW,283,21.0,22.0,73,0.00,,---,0.00,VWS V14.01,2013-03-13 05:30:00,
2013-03-13 00:32:00,27.5,20.3,30.10,West,281,14.0,22.0,74,0.00,,---,0.00,VWS V14.01,2013-03-13 05:32:00,
2013-03-13 00:33:00,27.5,20.3,30.10,NW,315,18.0,22.0,74,0.00,,---,0.00,VWS V14.01,2013-03-13 05:33:00,
2013-03-13 00:35:00,27.4,20.5,30.10,WNW,302,10.0,22.0,75,0.00,,---,0.00,VWS V14.01,2013-03-13 05:35:00,
2013-03-13 00:37:00,27.3,20.8,30.10,WNW,294,12.0,22.0,76,0.00,,---,0.00,VWS V14.01,2013-03-13 05:37:00,
2013-03-13 00:38:00,27.2,20.6,30.10,NW,312,14.0,22.0,76,0.00,,---,0.00,VWS V14.01,2013-03-13 05:38:00,
2013-03-13 00:40:00,27.1,20.5,30.10,NNW,330,22.0,22.0,76,0.00,,---,0.00,VWS V14.01,2013-03-13 05:40:00,
2013-03-13 00:42:00,27.1,20.2,30.10,WNW,287,19.0,25.0,75,0.00,,---,0.00,VWS V14.01,2013-03-13 05:42:00,
2013-03-13 00:43:00,27.0,20.1,30.10,WNW,285,15.0,25.0,75,0.00,,---,0.00,VWS V14.01,2013-03-13 05:43:00,
2013-03-13 00:45:00,27.0,20.1,30.10,NW,310,19.0,25.0,75,0.00,,---,0.00,VWS V14.01,2013-03-13 05:45:00,
2013-03-13 00:47:00,26.9,20.0,30.10,NW,317,19.0,25.0,75,0.00,,---,0.00,VWS V14.01,2013-03-13 05:47:00,
2013-03-13 00:48:00,26.9,20.4,30.10,WNW,282,18.0,25.0,76,0.00,,---,0.00,VWS V14.01,2013-03-13 05:48:00,
2013-03-13 00:50:00,26.8,20.3,30.10,NW,304,16.0,25.0,76,0.00,,---,0.00,VWS V14.01,2013-03-13 05:50:00,
2013-03-13 00:52:00,26.8,19.6,30.10,West,265,12.0,25.0,74,0.00,,---,0.00,VWS V14.01,2013-03-13 05:52:00,
2013-03-13 00:53:00,26.8,20.0,30.10,NW,318,12.0,25.0,75,0.00,,---,0.00,VWS V14.01,2013-03-13 05:53:00,
2013-03-13 00:54:00,26.8,20.0,30.10,West,271,11.0,25.0,75,0.00,,---,0.00,VWS V14.01,2013-03-13 05:54:00,
2013-03-13 00:55:00,26.8,20.0,30.10,NW,304,11.0,25.0,75,0.00,,---,0.00,VWS V14.01,2013-03-13 05:55:00,
2013-03-13 00:58:00,26.8,20.0,30.10,NNW,327,12.0,25.0,75,0.00,,---,0.00,VWS V14.01,2013-03-13 05:58:00,
2013-03-13 00:59:00,26.8,19.6,30.10,NNW,327,12.0,25.0,74,0.00,,---,0.00,VWS V14.01,2013-03-13 05:59:00,
2013-03-13 01:00:00,26.8,19.6,30.10,WNW,294,12.0,25.0,74,0.00,,---,0.00,VWS V14.01,2013-03-13 06:00:00,
2013-03-13 01:03:00,26.8,19.6,30.10,WNW,303,14.0,15.0,74,0.00,,---,0.00,VWS V14.01,2013-03-13 06:03:00,
2013-03-13 01:04:00,26.9,19.7,30.10,NW,308,12.0,19.0,74,0.00,,---,0.00,VWS V14.01,2013-03-13 06:04:00,
2013-03-13 01:05:00,26.9,19.7,30.10,WNW,284,7.0,19.0,74,0.00,,---,0.00,VWS V14.01,2013-03-13 06:05:00,
2013-03-13 01:08:00,26.9,20.4,30.10,NW,317,13.0,19.0,76,0.00,,---,0.00,VWS V14.01,2013-03-13 06:08:00,
2013-03-13 01:09:00,26.8,20.3,30.10,NW,320,7.0,19.0,76,0.00,,---,0.00,VWS V14.01,2013-03-13 06:09:00,
2013-03-13 01:11:00,26.8,20.6,30.10,NW,321,14.0,19.0,77,0.00,,---,0.00,VWS V14.01,2013-03-13 06:11:00,
2013-03-13 01:14:00,26.7,20.5,30.10,NW,315,10.0,19.0,77,0.00,,---,0.00,VWS V14.01,2013-03-13 06:14:00,
2013-03-13 01:16:00,26.7,21.1,30.10,WNW,290,14.0,19.0,79,0.00,,---,0.00,VWS V14.01,2013-03-13 06:16:00,
2013-03-13 01:19:00,26.6,21.0,30.10,WNW,294,13.0,19.0,79,0.00,,---,0.00,VWS V14.01,2013-03-13 06:19:00,
2013-03-13 01:22:00,26.5,20.9,30.11,WNW,299,13.0,19.0,79,0.00,,---,0.00,VWS V14.01,2013-03-13 06:22:00,
2013-03-13 01:24:00,26.5,20.9,30.11,WNW,303,7.0,19.0,79,0.00,,---,0.00,VWS V14.01,2013-03-13 06:24:00,
2013-03-13 01:25:00,26.5,21.2,30.11,NW,314,9.0,19.0,80,0.00,,---,0.00,VWS V14.01,2013-03-13 06:25:00,
2013-03-13 01:28:00,26.6,21.3,30.11,NNW,342,15.0,19.0,80,0.00,,---,0.00,VWS V14.01,2013-03-13 06:28:00,
2013-03-13 01:29:00,26.5,21.2,30.11,WNW,288,10.0,19.0,80,0.00,,---,0.00,VWS V14.01,2013-03-13 06:29:00,
2013-03-13 01:30:00,26.5,21.2,30.11,WNW,300,13.0,19.0,80,0.00,,---,0.00,VWS V14.01,2013-03-13 06:30:00,
2013-03-13 01:33:00,26.5,20.9,30.11,WNW,303,16.0,17.0,79,0.00,,---,0.00,VWS V14.01,2013-03-13 06:33:00,
2013-03-13 01:34:00,26.5,20.9,30.11,West,280,10.0,17.0,79,0.00,,---,0.00,VWS V14.01,2013-03-13 06:34:00,
2013-03-13 01:35:00,26.6,21.0,30.11,NW,310,15.0,17.0,79,0.00,,---,0.00,VWS V14.01,2013-03-13 06:35:00,
2013-03-13 01:38:00,26.6,21.6,30.11,West,275,18.0,18.0,81,0.00,,---,0.00,VWS V14.01,2013-03-13 06:38:00,
2013-03-13 01:39:00,26.6,21.0,30.11,NW,308,20.0,20.0,79,0.00,,---,0.00,VWS V14.01,2013-03-13 06:39:00,
2013-03-13 01:40:00,26.6,21.0,30.11,WNW,290,13.0,20.0,79,0.00,,---,0.00,VWS V14.01,2013-03-13 06:40:00,
2013-03-13 01:44:00,26.6,20.7,30.11,WNW,298,12.0,20.0,78,0.00,,---,0.00,VWS V14.01,2013-03-13 06:44:00,
2013-03-13 01:45:00,26.6,20.7,30.11,NW,308,22.0,22.0,78,0.00,,---,0.00,VWS V14.01,2013-03-13 06:45:00,
2013-03-13 01:49:00,26.6,20.7,30.11,WNW,294,15.0,23.0,78,0.00,,---,0.00,VWS V14.01,2013-03-13 06:49:00,
2013-03-13 01:50:00,26.6,20.1,30.11,NW,315,14.0,23.0,76,0.00,,---,0.00,VWS V14.01,2013-03-13 06:50:00,
2013-03-13 01:54:00,26.6,19.8,30.11,NW,307,19.0,23.0,75,0.00,,---,0.00,VWS V14.01,2013-03-13 06:54:00,
2013-03-13 01:55:00,26.5,19.4,30.11,WNW,286,13.0,23.0,74,0.00,,---,0.00,VWS V14.01,2013-03-13 06:55:00,
2013-03-13 01:59:00,26.5,19.7,30.11,WNW,292,13.0,23.0,75,0.00,,---,0.00,VWS V14.01,2013-03-13 06:59:00,
2013-03-13 02:00:00,26.4,19.6,30.11,NW,306,20.0,23.0,75,0.00,,---,0.00,VWS V14.01,2013-03-13 07:00:00,
2013-03-13 02:04:00,26.3,18.8,30.11,WNW,288,13.0,22.0,73,0.00,,---,0.00,VWS V14.01,2013-03-13 07:04:00,
2013-03-13 02:05:00,26.4,18.3,30.11,WNW,292,11.0,22.0,71,0.00,,---,0.00,VWS V14.01,2013-03-13 07:05:00,
2013-03-13 02:09:00,26.4,18.3,30.11,WNW,300,17.0,25.0,71,0.00,,---,0.00,VWS V14.01,2013-03-13 07:09:00,
2013-03-13 02:10:00,26.4,18.3,30.11,WNW,294,14.0,25.0,71,0.00,,---,0.00,VWS V14.01,2013-03-13 07:10:00,
2013-03-13 02:14:00,26.4,18.0,30.11,WNW,295,12.0,25.0,70,0.00,,---,0.00,VWS V14.01,2013-03-13 07:14:00,
2013-03-13 02:15:00,26.4,17.3,30.11,NW,310,12.0,25.0,68,0.00,,---,0.00,VWS V14.01,2013-03-13 07:15:00,
2013-03-13 02:19:00,26.4,18.0,30.11,WNW,298,16.0,25.0,70,0.00,,---,0.00,VWS V14.01,2013-03-13 07:19:00,
2013-03-13 02:20:00,26.4,18.0,30.11,WNW,290,10.0,25.0,70,0.00,,---,0.00,VWS V14.01,2013-03-13 07:20:00,
2013-03-13 02:25:00,26.4,18.0,30.11,WNW,298,17.0,25.0,70,0.00,,---,0.00,VWS V14.01,2013-03-13 07:25:00,
2013-03-13 02:30:00,27.0,18.2,30.11,WNW,286,7.0,25.0,69,0.00,,---,0.00,VWS V14.01,2013-03-13 07:30:00,
2013-03-13 02:31:00,27.0,18.2,30.11,NW,321,11.0,25.0,69,0.00,,---,0.00,VWS V14.01,2013-03-13 07:31:00,
2013-03-13 02:35:00,27.0,17.9,30.11,NW,321,13.0,15.0,68,0.00,,---,0.00,VWS V14.01,2013-03-13 07:35:00,
2013-03-13 02:36:00,27.0,17.9,30.11,NNW,334,9.0,15.0,68,0.00,,---,0.00,VWS V14.01,2013-03-13 07:36:00,
2013-03-13 02:40:00,27.1,17.3,30.11,WNW,294,13.0,20.0,66,0.00,,---,0.00,VWS V14.01,2013-03-13 07:40:00,
2013-03-13 02:41:00,27.1,17.6,30.11,WNW,284,11.0,20.0,67,0.00,,---,0.00,VWS V14.01,2013-03-13 07:41:00,
2013-03-13 02:45:00,27.0,17.9,30.11,WNW,294,12.0,20.0,68,0.00,,---,0.00,VWS V14.01,2013-03-13 07:45:00,
2013-03-13 02:46:00,27.0,17.9,30.11,WNW,292,14.0,20.0,68,0.00,,---,0.00,VWS V14.01,2013-03-13 07:46:00,
2013-03-13 02:50:00,26.9,18.1,30.11,WNW,298,9.0,20.0,69,0.00,,---,0.00,VWS V14.01,2013-03-13 07:50:00,
2013-03-13 02:51:00,26.9,18.1,30.11,West,279,9.0,20.0,69,0.00,,---,0.00,VWS V14.01,2013-03-13 07:51:00,
2013-03-13 02:52:00,26.8,18.3,30.11,WNW,301,10.0,20.0,70,0.00,,---,0.00,VWS V14.01,2013-03-13 07:52:00,
2013-03-13 02:55:00,26.7,18.6,30.11,WNW,302,6.0,20.0,71,0.00,,---,0.00,VWS V14.01,2013-03-13 07:55:00,
2013-03-13 02:57:00,26.7,18.6,30.11,West,269,11.0,20.0,71,0.00,,---,0.00,VWS V14.01,2013-03-13 07:57:00,
2013-03-13 03:00:00,26.8,18.3,30.11,NW,317,7.0,20.0,70,0.00,,---,0.00,VWS V14.01,2013-03-13 08:00:00,
2013-03-13 03:02:00,26.8,18.7,30.11,WNW,283,8.0,13.0,71,0.00,,---,0.00,VWS V14.01,2013-03-13 08:02:00,
2013-03-13 03:06:00,26.9,18.4,30.12,WNW,288,20.0,24.0,70,0.00,,---,0.00,VWS V14.01,2013-03-13 08:06:00,
2013-03-13 03:08:00,26.9,17.8,30.11,NNW,344,17.0,24.0,68,0.00,,---,0.00,VWS V14.01,2013-03-13 08:08:00,
2013-03-13 03:09:00,27.0,17.9,30.11,West,277,13.0,24.0,68,0.00,,---,0.00,VWS V14.01,2013-03-13 08:09:00,
2013-03-13 03:11:00,26.9,18.1,30.11,NW,306,13.0,24.0,69,0.00,,---,0.00,VWS V14.01,2013-03-13 08:11:00,
2013-03-13 03:13:00,26.9,18.1,30.11,NW,304,6.0,24.0,69,0.00,,---,0.00,VWS V14.01,2013-03-13 08:13:00,
2013-03-13 03:14:00,26.9,18.1,30.12,NW,315,5.0,24.0,69,0.00,,---,0.00,VWS V14.01,2013-03-13 08:14:00,
2013-03-13 03:16:00,26.7,18.2,30.11,WNW,299,17.0,24.0,70,0.00,,---,0.00,VWS V14.01,2013-03-13 08:16:00,
2013-03-13 03:18:00,26.7,18.2,30.11,NW,312,12.0,24.0,70,0.00,,---,0.00,VWS V14.01,2013-03-13 08:18:00,
2013-03-13 03:19:00,26.6,18.5,30.11,NW,311,5.0,24.0,71,0.00,,---,0.00,VWS V14.01,2013-03-13 08:19:00,
2013-03-13 03:22:00,26.6,18.8,30.12,NW,311,7.0,24.0,72,0.00,,---,0.00,VWS V14.01,2013-03-13 08:22:00,
2013-03-13 03:23:00,26.5,18.7,30.12,WNW,298,5.0,24.0,72,0.00,,---,0.00,VWS V14.01,2013-03-13 08:23:00,
2013-03-13 03:24:00,26.4,18.6,30.11,NW,307,16.0,24.0,72,0.00,,---,0.00,VWS V14.01,2013-03-13 08:24:00,
2013-03-13 03:27:00,26.5,18.0,30.12,NW,316,11.0,24.0,70,0.00,,---,0.00,VWS V14.01,2013-03-13 08:27:00,
2013-03-13 03:28:00,26.5,18.0,30.11,NW,324,12.0,24.0,70,0.00,,---,0.00,VWS V14.01,2013-03-13 08:28:00,
2013-03-13 03:29:00,26.5,17.7,30.11,West,281,10.0,24.0,69,0.00,,---,0.00,VWS V14.01,2013-03-13 08:29:00,
2013-03-13 03:32:00,26.4,18.3,30.12,NW,304,11.0,15.0,71,0.00,,---,0.00,VWS V14.01,2013-03-13 08:32:00,
2013-03-13 03:33:00,26.4,18.3,30.11,WNW,296,5.0,15.0,71,0.00,,---,0.00,VWS V14.01,2013-03-13 08:33:00,
2013-03-13 03:34:00,26.4,18.3,30.11,WNW,293,17.0,17.0,71,0.00,,---,0.00,VWS V14.01,2013-03-13 08:34:00,
2013-03-13 03:37:00,26.3,18.2,30.12,NW,321,5.0,17.0,71,0.00,,---,0.00,VWS V14.01,2013-03-13 08:37:00,
2013-03-13 03:38:00,26.2,18.1,30.12,WNW,292,14.0,18.0,71,0.00,,---,0.00,VWS V14.01,2013-03-13 08:38:00,
2013-03-13 03:39:00,26.2,17.8,30.11,NW,304,6.0,18.0,70,0.00,,---,0.00,VWS V14.01,2013-03-13 08:39:00,
2013-03-13 03:42:00,26.3,17.9,30.12,NW,308,10.0,18.0,70,0.00,,---,0.00,VWS V14.01,2013-03-13 08:42:00,
2013-03-13 03:44:00,26.3,17.9,30.11,NW,309,10.0,18.0,70,0.00,,---,0.00,VWS V14.01,2013-03-13 08:44:00,
2013-03-13 03:45:00,26.3,17.9,30.12,NW,319,6.0,18.0,70,0.00,,---,0.00,VWS V14.01,2013-03-13 08:45:00,
2013-03-13 03:48:00,26.2,17.8,30.11,NW,305,7.0,18.0,70,0.00,,---,0.00,VWS V14.01,2013-03-13 08:48:00,
2013-03-13 03:49:00,26.2,18.1,30.11,WNW,300,10.0,18.0,71,0.00,,---,0.00,VWS V14.01,2013-03-13 08:49:00,
2013-03-13 03:50:00,26.1,18.0,30.12,NW,326,7.0,18.0,71,0.00,,---,0.00,VWS V14.01,2013-03-13 08:50:00,
2013-03-13 03:53:00,26.1,18.0,30.12,WNW,292,7.0,18.0,71,0.00,,---,0.00,VWS V14.01,2013-03-13 08:53:00,
2013-03-13 03:54:00,26.1,18.0,30.11,NW,315,7.0,18.0,71,0.00,,---,0.00,VWS V14.01,2013-03-13 08:54:00,
2013-03-13 03:55:00,26.1,18.3,30.12,NW,311,4.0,18.0,72,0.00,,---,0.00,VWS V14.01,2013-03-13 08:55:00,
2013-03-13 03:58:00,26.0,18.5,30.12,NW,322,9.0,18.0,73,0.00,,---,0.00,VWS V14.01,2013-03-13 08:58:00,
2013-03-13 03:59:00,25.9,18.5,30.12,WNW,296,5.0,18.0,73,0.00,,---,0.00,VWS V14.01,2013-03-13 08:59:00,
2013-03-13 04:00:00,25.9,18.5,30.12,NW,320,11.0,18.0,73,0.00,,---,0.00,VWS V14.01,2013-03-13 09:00:00,
2013-03-13 04:04:00,25.9,18.5,30.12,WNW,300,5.0,11.0,73,0.00,,---,0.00,VWS V14.01,2013-03-13 09:04:00,
2013-03-13 04:05:00,25.8,18.7,30.12,WNW,291,9.0,11.0,74,0.00,,---,0.00,VWS V14.01,2013-03-13 09:05:00,
2013-03-13 04:09:00,25.6,18.5,30.12,NW,308,7.0,11.0,74,0.00,,---,0.00,VWS V14.01,2013-03-13 09:09:00,
2013-03-13 04:10:00,25.6,18.8,30.12,West,281,11.0,11.0,75,0.00,,---,0.00,VWS V14.01,2013-03-13 09:10:00,
2013-03-13 04:14:00,25.5,18.7,30.12,West,265,10.0,12.0,75,0.00,,---,0.00,VWS V14.01,2013-03-13 09:14:00,
2013-03-13 04:15:00,25.6,19.1,30.12,NW,311,4.0,14.0,76,0.00,,---,0.00,VWS V14.01,2013-03-13 09:15:00,
2013-03-13 04:19:00,25.6,18.8,30.12,NNW,344,9.0,15.0,75,0.00,,---,0.00,VWS V14.01,2013-03-13 09:19:00,
2013-03-13 04:21:00,25.6,18.8,30.12,WNW,285,11.0,15.0,75,0.00,,---,0.00,VWS V14.01,2013-03-13 09:21:00,
2013-03-13 04:24:00,25.7,18.9,30.12,WNW,302,5.0,15.0,75,0.00,,---,0.00,VWS V14.01,2013-03-13 09:24:00,
2013-03-13 04:25:00,25.7,18.9,30.12,WNW,289,14.0,15.0,75,0.00,,---,0.00,VWS V14.01,2013-03-13 09:25:00,
2013-03-13 04:26:00,25.7,19.2,30.13,WNW,288,7.0,15.0,76,0.00,,---,0.00,VWS V14.01,2013-03-13 09:26:00,
2013-03-13 04:29:00,25.6,19.1,30.13,WNW,286,4.0,15.0,76,0.00,,---,0.00,VWS V14.01,2013-03-13 09:29:00,
2013-03-13 04:30:00,25.6,19.1,30.13,West,279,5.0,15.0,76,0.00,,---,0.00,VWS V14.01,2013-03-13 09:30:00,
2013-03-13 04:31:00,25.6,18.8,30.13,WNW,294,6.0,7.0,75,0.00,,---,0.00,VWS V14.01,2013-03-13 09:31:00,
2013-03-13 04:34:00,25.4,18.9,30.13,NW,309,5.0,13.0,76,0.00,,---,0.00,VWS V14.01,2013-03-13 09:34:00,
2013-03-13 04:35:00,25.4,18.9,30.13,WNW,296,12.0,13.0,76,0.00,,---,0.00,VWS V14.01,2013-03-13 09:35:00,
2013-03-13 04:36:00,25.4,18.9,30.13,West,279,15.0,15.0,76,0.00,,---,0.00,VWS V14.01,2013-03-13 09:36:00,
2013-03-13 04:39:00,25.4,18.9,30.13,WNW,297,8.0,15.0,76,0.00,,---,0.00,VWS V14.01,2013-03-13 09:39:00,
2013-03-13 04:40:00,25.4,18.9,30.13,NW,315,7.0,15.0,76,0.00,,---,0.00,VWS V14.01,2013-03-13 09:40:00,
2013-03-13 04:42:00,25.4,18.9,30.14,NW,307,9.0,15.0,76,0.00,,---,0.00,VWS V14.01,2013-03-13 09:42:00,
2013-03-13 04:44:00,25.4,18.9,30.14,NW,322,9.0,15.0,76,0.00,,---,0.00,VWS V14.01,2013-03-13 09:44:00,
2013-03-13 04:45:00,25.4,18.9,30.14,NNW,333,9.0,15.0,76,0.00,,---,0.00,VWS V14.01,2013-03-13 09:45:00,
2013-03-13 04:47:00,25.4,19.2,30.14,NNW,338,6.0,15.0,77,0.00,,---,0.00,VWS V14.01,2013-03-13 09:47:00,
2013-03-13 04:49:00,25.2,19.6,30.14,WNW,286,6.0,15.0,79,0.00,,---,0.00,VWS V14.01,2013-03-13 09:49:00,
2013-03-13 04:50:00,25.2,19.6,30.14,WNW,283,6.0,15.0,79,0.00,,---,0.00,VWS V14.01,2013-03-13 09:50:00,
2013-03-13 04:52:00,25.2,19.6,30.14,WNW,292,4.0,15.0,79,0.00,,---,0.00,VWS V14.01,2013-03-13 09:52:00,
2013-03-13 04:54:00,25.1,19.8,30.14,NW,313,6.0,15.0,80,0.00,,---,0.00,VWS V14.01,2013-03-13 09:54:00,
2013-03-13 04:55:00,25.1,19.8,30.14,NW,319,6.0,15.0,80,0.00,,---,0.00,VWS V14.01,2013-03-13 09:55:00,
2013-03-13 04:56:00,25.1,19.8,30.14,West,277,9.0,15.0,80,0.00,,---,0.00,VWS V14.01,2013-03-13 09:56:00,
2013-03-13 04:57:00,25.1,19.5,30.14,NNW,332,7.0,16.0,79,0.00,,---,0.00,VWS V14.01,2013-03-13 09:57:00,
2013-03-13 05:00:00,25.2,19.3,30.14,WNW,286,5.0,16.0,78,0.00,,---,0.00,VWS V14.01,2013-03-13 10:00:00,
2013-03-13 05:01:00,25.2,19.3,30.14,NW,325,7.0,8.0,78,0.00,,---,0.00,VWS V14.01,2013-03-13 10:01:00,
2013-03-13 05:02:00,25.2,19.3,30.14,NW,317,12.0,14.0,78,0.00,,---,0.00,VWS V14.01,2013-03-13 10:02:00,
2013-03-13 05:05:00,25.2,19.3,30.14,NW,320,10.0,14.0,78,0.00,,---,0.00,VWS V14.01,2013-03-13 10:05:00,
2013-03-13 05:06:00,25.1,19.2,30.14,NW,320,8.0,14.0,78,0.00,,---,0.00,VWS V14.01,2013-03-13 10:06:00,
2013-03-13 05:07:00,25.1,19.2,30.14,NW,320,8.0,14.0,78,0.00,,---,0.00,VWS V14.01,2013-03-13 10:07:00,
2013-03-13 05:10:00,25.2,19.0,30.14,NW,309,3.0,14.0,77,0.00,,---,0.00,VWS V14.01,2013-03-13 10:10:00,
2013-03-13 05:11:00,25.2,19.0,30.14,WNW,288,5.0,14.0,77,0.00,,---,0.00,VWS V14.01,2013-03-13 10:11:00,
2013-03-13 05:12:00,25.2,19.0,30.15,WNW,288,4.0,14.0,77,0.00,,---,0.00,VWS V14.01,2013-03-13 10:12:00,
2013-03-13 05:15:00,25.1,19.2,30.15,WNW,284,8.0,14.0,78,0.00,,---,0.00,VWS V14.01,2013-03-13 10:15:00,
2013-03-13 05:16:00,25.1,19.2,30.15,WNW,302,6.0,14.0,78,0.00,,---,0.00,VWS V14.01,2013-03-13 10:16:00,
2013-03-13 05:17:00,25.1,18.9,30.15,WNW,292,13.0,17.0,77,0.00,,---,0.00,VWS V14.01,2013-03-13 10:17:00,
2013-03-13 05:18:00,25.1,18.9,30.15,West,281,10.0,17.0,77,0.00,,---,0.00,VWS V14.01,2013-03-13 10:18:00,
2013-03-13 05:21:00,25.1,18.9,30.15,NW,306,7.0,17.0,77,0.00,,---,0.00,VWS V14.01,2013-03-13 10:21:00,
2013-03-13 05:22:00,25.1,18.9,30.15,WNW,296,11.0,17.0,77,0.00,,---,0.00,VWS V14.01,2013-03-13 10:22:00,
2013-03-13 05:23:00,25.1,18.9,30.15,WNW,292,11.0,17.0,77,0.00,,---,0.00,VWS V14.01,2013-03-13 10:23:00,
2013-03-13 05:26:00,25.1,18.9,30.15,NW,322,10.0,17.0,77,0.00,,---,0.00,VWS V14.01,2013-03-13 10:26:00,
2013-03-13 05:27:00,25.1,18.9,30.15,NW,319,16.0,17.0,77,0.00,,---,0.00,VWS V14.01,2013-03-13 10:27:00,
2013-03-13 05:28:00,25.1,18.9,30.15,WNW,292,12.0,17.0,77,0.00,,---,0.00,VWS V14.01,2013-03-13 10:28:00,
2013-03-13 05:32:00,25.1,18.9,30.15,WNW,289,5.0,13.0,77,0.00,,---,0.00,VWS V14.01,2013-03-13 10:32:00,
2013-03-13 05:33:00,25.0,18.8,30.16,NW,317,6.0,14.0,77,0.00,,---,0.00,VWS V14.01,2013-03-13 10:33:00,
2013-03-13 05:37:00,25.0,19.1,30.16,WNW,284,9.0,17.0,78,0.00,,---,0.00,VWS V14.01,2013-03-13 10:37:00,
2013-03-13 05:38:00,24.9,19.0,30.16,WNW,296,11.0,17.0,78,0.00,,---,0.00,VWS V14.01,2013-03-13 10:38:00,
2013-03-13 05:42:00,24.8,18.9,30.16,NW,316,11.0,17.0,78,0.00,,---,0.00,VWS V14.01,2013-03-13 10:42:00,
2013-03-13 05:43:00,24.8,18.9,30.16,North,11,10.0,18.0,78,0.00,,---,0.00,VWS V14.01,2013-03-13 10:43:00,
2013-03-13 05:47:00,24.8,18.9,30.16,NW,306,12.0,18.0,78,0.00,,---,0.00,VWS V14.01,2013-03-13 10:47:00,
2013-03-13 05:48:00,24.8,18.6,30.16,WNW,286,9.0,18.0,77,0.00,,---,0.00,VWS V14.01,2013-03-13 10:48:00,
2013-03-13 05:52:00,24.9,19.0,30.16,North,351,7.0,18.0,78,0.00,,---,0.00,VWS V14.01,2013-03-13 10:52:00,
2013-03-13 05:53:00,24.8,18.9,30.16,NW,309,6.0,18.0,78,0.00,,---,0.00,VWS V14.01,2013-03-13 10:53:00,
2013-03-13 05:57:00,24.7,18.8,30.16,WNW,294,10.0,18.0,78,0.00,,---,0.00,VWS V14.01,2013-03-13 10:57:00,
2013-03-13 05:58:00,24.7,18.8,30.16,NW,306,9.0,18.0,78,0.00,,---,0.00,VWS V14.01,2013-03-13 10:58:00,
2013-03-13 06:02:00,24.7,19.1,30.17,WNW,283,5.0,16.0,79,0.00,,---,0.00,VWS V14.01,2013-03-13 11:02:00,
2013-03-13 06:03:00,24.6,19.0,30.17,WNW,294,8.0,16.0,79,0.00,,---,0.00,VWS V14.01,2013-03-13 11:03:00,
2013-03-13 06:04:00,24.6,19.0,30.17,WNW,297,6.0,16.0,79,0.00,,---,0.00,VWS V14.01,2013-03-13 11:04:00,
2013-03-13 06:07:00,24.6,19.0,30.17,WNW,294,5.0,16.0,79,0.00,,---,0.00,VWS V14.01,2013-03-13 11:07:00,
2013-03-13 06:08:00,24.6,19.0,30.17,NNW,327,7.0,16.0,79,0.00,,---,0.00,VWS V14.01,2013-03-13 11:08:00,
2013-03-13 06:09:00,24.6,19.0,30.17,WNW,291,7.0,16.0,79,0.00,,---,0.00,VWS V14.01,2013-03-13 11:09:00,
2013-03-13 06:12:00,24.7,19.1,30.17,West,276,8.0,16.0,79,0.00,,---,0.00,VWS V14.01,2013-03-13 11:12:00,
2013-03-13 06:13:00,24.7,19.1,30.17,NNW,338,8.0,16.0,79,0.00,,---,0.00,VWS V14.01,2013-03-13 11:13:00,
2013-03-13 06:14:00,24.6,19.0,30.17,WNW,290,11.0,16.0,79,0.00,,---,0.00,VWS V14.01,2013-03-13 11:14:00,
2013-03-13 06:17:00,24.7,19.1,30.17,NW,323,9.0,16.0,79,0.00,,---,0.00,VWS V14.01,2013-03-13 11:17:00,
2013-03-13 06:18:00,24.7,19.1,30.17,NW,307,13.0,16.0,79,0.00,,---,0.00,VWS V14.01,2013-03-13 11:18:00,
2013-03-13 06:19:00,24.7,19.1,30.17,WNW,300,10.0,16.0,79,0.00,,---,0.00,VWS V14.01,2013-03-13 11:19:00,
2013-03-13 06:22:00,24.7,19.1,30.17,NW,325,8.0,16.0,79,0.00,,---,0.00,VWS V14.01,2013-03-13 11:22:00,
2013-03-13 06:23:00,24.7,19.1,30.17,West,277,11.0,16.0,79,0.00,,---,0.00,VWS V14.01,2013-03-13 11:23:00,
2013-03-13 06:24:00,24.7,19.1,30.17,NW,319,16.0,16.0,79,0.00,,---,0.00,VWS V14.01,2013-03-13 11:24:00,
2013-03-13 06:27:00,24.7,19.1,30.17,NW,312,8.0,16.0,79,0.00,,---,0.00,VWS V14.01,2013-03-13 11:27:00,
2013-03-13 06:28:00,24.7,19.1,30.17,NW,310,14.0,16.0,79,0.00,,---,0.00,VWS V14.01,2013-03-13 11:28:00,
2013-03-13 06:29:00,24.7,19.1,30.17,NW,315,4.0,16.0,79,0.00,,---,0.00,VWS V14.01,2013-03-13 11:29:00,
2013-03-13 06:32:00,24.7,19.1,30.17,WNW,302,7.0,14.0,79,0.00,,---,0.00,VWS V14.01,2013-03-13 11:32:00,
2013-03-13 06:33:00,24.7,19.1,30.17,WNW,292,8.0,14.0,79,0.00,,---,0.00,VWS V14.01,2013-03-13 11:33:00,
2013-03-13 06:34:00,24.7,19.1,30.17,West,268,6.0,14.0,79,0.00,,---,0.00,VWS V14.01,2013-03-13 11:34:00,
2013-03-13 06:37:00,24.6,19.3,30.17,WNW,288,8.0,14.0,80,0.00,,---,0.00,VWS V14.01,2013-03-13 11:37:00,
2013-03-13 06:39:00,24.6,19.3,30.17,WNW,283,10.0,14.0,80,0.00,,---,0.00,VWS V14.01,2013-03-13 11:39:00,
2013-03-13 06:43:00,24.5,19.2,30.18,NW,306,3.0,14.0,80,0.00,,---,0.00,VWS V14.01,2013-03-13 11:43:00,
2013-03-13 06:44:00,24.5,19.2,30.18,WNW,291,11.0,14.0,80,0.00,,---,0.00,VWS V14.01,2013-03-13 11:44:00,
2013-03-13 06:48:00,24.5,19.2,30.18,WNW,294,10.0,15.0,80,0.00,,---,0.00,VWS V14.01,2013-03-13 11:48:00,
2013-03-13 06:49:00,24.5,19.2,30.18,WNW,296,6.0,15.0,80,0.00,,---,0.00,VWS V14.01,2013-03-13 11:49:00,
2013-03-13 06:53:00,24.5,18.9,30.18,WNW,298,9.0,16.0,79,0.00,,---,0.00,VWS V14.01,2013-03-13 11:53:00,
2013-03-13 06:54:00,24.5,18.9,30.18,WNW,284,9.0,16.0,79,0.00,,---,0.00,VWS V14.01,2013-03-13 11:54:00,
2013-03-13 06:55:00,24.5,18.9,30.18,NW,309,7.0,16.0,79,0.00,,---,0.00,VWS V14.01,2013-03-13 11:55:00,
2013-03-13 06:58:00,24.5,19.2,30.18,NNW,340,12.0,16.0,80,0.00,,---,0.00,VWS V14.01,2013-03-13 11:58:00,
2013-03-13 06:59:00,24.4,19.1,30.18,West,271,7.0,16.0,80,0.00,,---,0.00,VWS V14.01,2013-03-13 11:59:00,
2013-03-13 07:00:00,24.5,19.2,30.18,NW,313,9.0,16.0,80,0.00,,---,0.00,VWS V14.01,2013-03-13 12:00:00,
2013-03-13 07:03:00,24.4,19.1,30.18,NW,309,5.0,13.0,80,0.00,,---,0.00,VWS V14.01,2013-03-13 12:03:00,
2013-03-13 07:04:00,24.3,19.0,30.18,NW,317,5.0,13.0,80,0.00,,---,0.00,VWS V14.01,2013-03-13 12:04:00,
2013-03-13 07:05:00,24.3,19.0,30.18,WNW,300,14.0,14.0,80,0.00,,---,0.00,VWS V14.01,2013-03-13 12:05:00,
2013-03-13 07:08:00,24.4,19.1,30.18,West,280,12.0,18.0,80,0.00,,---,0.00,VWS V14.01,2013-03-13 12:08:00,
2013-03-13 07:09:00,24.4,18.8,30.18,WNW,298,7.0,18.0,79,0.00,,---,0.00,VWS V14.01,2013-03-13 12:09:00,
2013-03-13 07:10:00,24.4,19.1,30.18,NNW,340,7.0,18.0,80,0.00,,---,0.00,VWS V14.01,2013-03-13 12:10:00,
2013-03-13 07:13:00,24.4,19.1,30.18,WNW,292,7.0,18.0,80,0.00,,---,0.00,VWS V14.01,2013-03-13 12:13:00,
2013-03-13 07:14:00,24.4,19.1,30.18,NNW,327,9.0,18.0,80,0.00,,---,0.00,VWS V14.01,2013-03-13 12:14:00,
2013-03-13 07:15:00,24.4,19.1,30.19,NW,313,3.0,18.0,80,0.00,,---,0.00,VWS V14.01,2013-03-13 12:15:00,
2013-03-13 07:18:00,24.3,19.0,30.18,NNW,340,11.0,18.0,80,0.00,,---,0.00,VWS V14.01,2013-03-13 12:18:00,
2013-03-13 07:19:00,24.3,19.3,30.19,WNW,297,5.0,18.0,81,0.00,,---,0.00,VWS V14.01,2013-03-13 12:19:00,
2013-03-13 07:20:00,24.3,19.0,30.19,WNW,288,6.0,18.0,80,0.00,,---,0.00,VWS V14.01,2013-03-13 12:20:00,
2013-03-13 07:23:00,24.3,19.0,30.19,WNW,302,6.0,18.0,80,0.00,,---,0.00,VWS V14.01,2013-03-13 12:23:00,
2013-03-13 07:25:00,24.3,19.0,30.19,WNW,285,7.0,18.0,80,0.00,,---,0.00,VWS V14.01,2013-03-13 12:25:00,
2013-03-13 07:26:00,24.3,19.3,30.19,NW,319,15.0,18.0,81,0.00,,---,0.00,VWS V14.01,2013-03-13 12:26:00,
2013-03-13 07:28:00,24.3,19.0,30.19,NW,315,6.0,18.0,80,0.00,,---,0.00,VWS V14.01,2013-03-13 12:28:00,
2013-03-13 07:30:00,24.3,19.0,30.19,WNW,290,6.0,18.0,80,0.00,,---,0.00,VWS V14.01,2013-03-13 12:30:00,
2013-03-13 07:31:00,24.3,19.0,30.19,WNW,291,6.0,18.0,80,0.00,,---,0.00,VWS V14.01,2013-03-13 12:31:00,
2013-03-13 07:33:00,24.3,19.0,30.19,WNW,294,13.0,13.0,80,0.00,,---,0.00,VWS V14.01,2013-03-13 12:33:00,
2013-03-13 07:35:00,24.3,19.0,30.19,WNW,290,11.0,13.0,80,0.00,,---,0.00,VWS V14.01,2013-03-13 12:35:00,
2013-03-13 07:36:00,24.3,19.0,30.19,North,349,11.0,15.0,80,0.00,,---,0.00,VWS V14.01,2013-03-13 12:36:00,
2013-03-13 07:38:00,24.4,19.1,30.19,NW,307,10.0,17.0,80,0.00,,---,0.00,VWS V14.01,2013-03-13 12:38:00,
2013-03-13 07:40:00,24.4,19.1,30.20,NW,306,11.0,17.0,80,0.00,,---,0.00,VWS V14.01,2013-03-13 12:40:00,
2013-03-13 07:41:00,24.4,19.1,30.20,WNW,300,11.0,17.0,80,0.00,,---,0.00,VWS V14.01,2013-03-13 12:41:00,
2013-03-13 07:42:00,24.4,19.1,30.20,North,355,6.0,17.0,80,0.00,,---,0.00,VWS V14.01,2013-03-13 12:42:00,
2013-03-13 07:44:00,24.5,19.2,30.20,NW,318,7.0,17.0,80,0.00,,---,0.00,VWS V14.01,2013-03-13 12:44:00,
2013-03-13 07:45:00,24.5,19.2,30.20,WNW,289,20.0,20.0,80,0.00,,---,0.00,VWS V14.01,2013-03-13 12:45:00,
2013-03-13 07:46:00,24.5,19.2,30.20,West,281,11.0,20.0,80,0.00,,---,0.00,VWS V14.01,2013-03-13 12:46:00,
2013-03-13 07:47:00,24.5,19.2,30.20,WNW,284,10.0,20.0,80,0.00,,---,0.00,VWS V14.01,2013-03-13 12:47:00,
2013-03-13 07:49:00,24.5,19.2,30.20,WNW,296,10.0,20.0,80,0.00,,---,0.00,VWS V14.01,2013-03-13 12:49:00,
2013-03-13 07:50:00,24.6,19.3,30.20,WNW,290,11.0,20.0,80,0.00,,---,0.00,VWS V14.01,2013-03-13 12:50:00,
2013-03-13 07:52:00,24.6,19.0,30.20,West,281,9.0,20.0,79,0.00,,---,0.00,VWS V14.01,2013-03-13 12:52:00,
2013-03-13 07:53:00,24.7,19.1,30.20,NW,312,15.0,20.0,79,0.00,,---,0.00,VWS V14.01,2013-03-13 12:53:00,
2013-03-13 07:54:00,24.7,19.1,30.20,NW,304,7.0,20.0,79,0.00,,---,0.00,VWS V14.01,2013-03-13 12:54:00,
2013-03-13 07:55:00,24.7,19.4,30.20,NNE,19,11.0,20.0,80,0.00,,---,0.00,VWS V14.01,2013-03-13 12:55:00,
2013-03-13 07:57:00,24.8,19.2,30.20,WNW,296,11.0,20.0,79,0.00,,---,0.00,VWS V14.01,2013-03-13 12:57:00,
2013-03-13 07:58:00,24.8,19.2,30.21,NNW,333,7.0,20.0,79,0.00,,---,0.00,VWS V14.01,2013-03-13 12:58:00,
2013-03-13 07:59:00,24.8,19.5,30.21,NW,315,13.0,20.0,80,0.00,,---,0.00,VWS V14.01,2013-03-13 12:59:00,
2013-03-13 08:00:00,24.8,19.2,30.21,NNW,331,9.0,20.0,79,0.00,,---,0.00,VWS V14.01,2013-03-13 13:00:00,
2013-03-13 08:03:00,24.8,19.2,30.21,NW,320,8.0,17.0,79,0.00,,---,0.00,VWS V14.01,2013-03-13 13:03:00,
2013-03-13 08:04:00,24.8,19.2,30.21,NW,306,8.0,17.0,79,0.00,,---,0.00,VWS V14.01,2013-03-13 13:04:00,
2013-03-13 08:05:00,24.8,19.2,30.21,NNW,339,7.0,17.0,79,0.00,,---,0.00,VWS V14.01,2013-03-13 13:05:00,
2013-03-13 08:08:00,24.8,19.2,30.21,NW,304,10.0,17.0,79,0.00,,---,0.00,VWS V14.01,2013-03-13 13:08:00,
2013-03-13 08:09:00,24.9,19.3,30.21,NNW,343,11.0,18.0,79,0.00,,---,0.00,VWS V14.01,2013-03-13 13:09:00,
2013-03-13 08:11:00,24.9,19.3,30.21,NW,305,11.0,18.0,79,0.00,,---,0.00,VWS V14.01,2013-03-13 13:11:00,
2013-03-13 08:13:00,24.8,19.2,30.21,WNW,296,9.0,18.0,79,0.00,,---,0.00,VWS V14.01,2013-03-13 13:13:00,
2013-03-13 08:14:00,24.9,19.3,30.21,NW,320,10.0,18.0,79,0.00,,---,0.00,VWS V14.01,2013-03-13 13:14:00,
2013-03-13 08:15:00,24.9,19.3,30.21,NW,311,10.0,18.0,79,0.00,,---,0.00,VWS V14.01,2013-03-13 13:15:00,
2013-03-13 08:16:00,24.9,19.3,30.21,NW,308,16.0,18.0,79,0.00,,---,0.00,VWS V14.01,2013-03-13 13:16:00,
2013-03-13 08:18:00,24.8,19.2,30.21,NW,320,14.0,18.0,79,0.00,,---,0.00,VWS V14.01,2013-03-13 13:18:00,
2013-03-13 08:19:00,24.9,19.3,30.21,NW,309,9.0,18.0,79,0.00,,---,0.00,VWS V14.01,2013-03-13 13:19:00,
2013-03-13 08:20:00,24.8,19.2,30.21,WNW,299,10.0,18.0,79,0.00,,---,0.00,VWS V14.01,2013-03-13 13:20:00,
2013-03-13 08:21:00,24.8,19.2,30.22,NW,325,7.0,18.0,79,0.00,,---,0.00,VWS V14.01,2013-03-13 13:21:00,
2013-03-13 08:23:00,24.9,19.6,30.21,NW,323,18.0,18.0,80,0.00,,---,0.00,VWS V14.01,2013-03-13 13:23:00,
2013-03-13 08:24:00,24.9,19.3,30.22,NNW,327,10.0,18.0,79,0.00,,---,0.00,VWS V14.01,2013-03-13 13:24:00,
2013-03-13 08:25:00,24.9,19.3,30.22,NNW,338,10.0,18.0,79,0.00,,---,0.00,VWS V14.01,2013-03-13 13:25:00,
2013-03-13 08:27:00,24.9,19.0,30.22,NW,325,8.0,18.0,78,0.00,,---,0.00,VWS V14.01,2013-03-13 13:27:00,
2013-03-13 08:28:00,24.9,19.0,30.22,WNW,302,11.0,18.0,78,0.00,,---,0.00,VWS V14.01,2013-03-13 13:28:00,
2013-03-13 08:29:00,24.9,19.0,30.22,NW,315,10.0,18.0,78,0.00,,---,0.00,VWS V14.01,2013-03-13 13:29:00,
2013-03-13 08:30:00,24.8,19.2,30.22,NW,307,10.0,18.0,79,0.00,,---,0.00,VWS V14.01,2013-03-13 13:30:00,
2013-03-13 08:32:00,24.9,19.3,30.22,NW,310,12.0,13.0,79,0.00,,---,0.00,VWS V14.01,2013-03-13 13:32:00,
2013-03-13 08:33:00,25.0,19.4,30.22,NW,313,6.0,16.0,79,0.00,,---,0.00,VWS V14.01,2013-03-13 13:33:00,
2013-03-13 08:34:00,25.1,19.5,30.22,NW,317,14.0,16.0,79,0.00,,---,0.00,VWS V14.01,2013-03-13 13:34:00,
2013-03-13 08:35:00,25.1,19.5,30.22,NW,314,12.0,16.0,79,0.00,,---,0.00,VWS V14.01,2013-03-13 13:35:00,
2013-03-13 08:37:00,25.2,19.3,30.22,NNW,331,10.0,20.0,78,0.00,,---,0.00,VWS V14.01,2013-03-13 13:37:00,
2013-03-13 08:38:00,25.2,19.3,30.22,WNW,300,6.0,20.0,78,0.00,,---,0.00,VWS V14.01,2013-03-13 13:38:00,
2013-03-13 08:39:00,25.2,19.3,30.22,WNW,294,8.0,20.0,78,0.00,,---,0.00,VWS V14.01,2013-03-13 13:39:00,
2013-03-13 08:40:00,25.2,19.3,30.22,NW,322,7.0,20.0,78,0.00,,---,0.00,VWS V14.01,2013-03-13 13:40:00,
2013-03-13 08:42:00,25.3,19.7,30.22,WNW,298,10.0,20.0,79,0.00,,---,0.00,VWS V14.01,2013-03-13 13:42:00,
2013-03-13 08:43:00,25.4,19.8,30.22,WNW,301,12.0,20.0,79,0.00,,---,0.00,VWS V14.01,2013-03-13 13:43:00,
2013-03-13 08:44:00,25.4,19.8,30.23,NNW,334,5.0,20.0,79,0.00,,---,0.00,VWS V14.01,2013-03-13 13:44:00,
2013-03-13 08:45:00,25.4,19.8,30.23,West,281,14.0,20.0,79,0.00,,---,0.00,VWS V14.01,2013-03-13 13:45:00,
2013-03-13 08:47:00,25.2,19.3,30.23,NW,306,11.0,20.0,78,0.00,,---,0.00,VWS V14.01,2013-03-13 13:47:00,
2013-03-13 08:48:00,25.2,19.0,30.23,WNW,288,6.0,20.0,77,0.00,,---,0.00,VWS V14.01,2013-03-13 13:48:00,
2013-03-13 08:49:00,25.2,19.0,30.23,NNW,335,14.0,20.0,77,0.00,,---,0.00,VWS V14.01,2013-03-13 13:49:00,
2013-03-13 08:50:00,25.1,18.9,30.23,NW,309,10.0,20.0,77,0.00,,---,0.00,VWS V14.01,2013-03-13 13:50:00,
2013-03-13 08:52:00,25.2,19.3,30.23,West,277,10.0,20.0,78,0.00,,---,0.00,VWS V14.01,2013-03-13 13:52:00,
2013-03-13 08:53:00,25.3,19.4,30.23,NW,314,9.0,20.0,78,0.00,,---,0.00,VWS V14.01,2013-03-13 13:53:00,
2013-03-13 08:55:00,25.3,19.4,30.23,NW,312,14.0,20.0,78,0.00,,---,0.00,VWS V14.01,2013-03-13 13:55:00,
2013-03-13 08:57:00,25.4,19.5,30.23,WNW,296,10.0,20.0,78,0.00,,---,0.00,VWS V14.01,2013-03-13 13:57:00,
2013-03-13 08:58:00,25.5,19.6,30.23,WNW,295,7.0,20.0,78,0.00,,---,0.00,VWS V14.01,2013-03-13 13:58:00,
2013-03-13 09:00:00,25.4,19.2,30.23,NW,311,16.0,20.0,77,0.00,,---,0.00,VWS V14.01,2013-03-13 14:00:00,
2013-03-13 09:02:00,25.6,19.4,30.23,NW,319,6.0,12.0,77,0.00,,---,0.00,VWS V14.01,2013-03-13 14:02:00,
2013-03-13 09:03:00,25.7,19.5,30.23,NW,315,5.0,12.0,77,0.00,,---,0.00,VWS V14.01,2013-03-13 14:03:00,
2013-03-13 09:05:00,25.8,19.6,30.24,NW,317,6.0,12.0,77,0.00,,---,0.00,VWS V14.01,2013-03-13 14:05:00,
2013-03-13 09:07:00,26.1,19.9,30.24,NW,307,6.0,12.0,77,0.00,,---,0.00,VWS V14.01,2013-03-13 14:07:00,
2013-03-13 09:09:00,26.2,20.3,30.24,NW,305,6.0,13.0,78,0.00,,---,0.00,VWS V14.01,2013-03-13 14:09:00,
2013-03-13 09:10:00,26.3,20.1,30.24,NW,318,14.0,14.0,77,0.00,,---,0.00,VWS V14.01,2013-03-13 14:10:00,
2013-03-13 09:13:00,26.2,19.7,30.24,NW,305,6.0,17.0,76,0.00,,---,0.00,VWS V14.01,2013-03-13 14:13:00,
2013-03-13 09:14:00,26.1,19.6,30.24,NNW,346,7.0,17.0,76,0.00,,---,0.00,VWS V14.01,2013-03-13 14:14:00,
2013-03-13 09:15:00,26.0,19.5,30.24,WNW,299,11.0,18.0,76,0.00,,---,0.00,VWS V14.01,2013-03-13 14:15:00,
2013-03-13 09:18:00,26.0,19.5,30.24,NW,309,11.0,18.0,76,0.00,,---,0.00,VWS V14.01,2013-03-13 14:18:00,
2013-03-13 09:19:00,26.1,19.6,30.24,NNW,327,10.0,18.0,76,0.00,,---,0.00,VWS V14.01,2013-03-13 14:19:00,
2013-03-13 09:20:00,26.3,20.1,30.24,NNW,341,14.0,18.0,77,0.00,,---,0.00,VWS V14.01,2013-03-13 14:20:00,
2013-03-13 09:23:00,26.3,20.1,30.24,NW,313,10.0,18.0,77,0.00,,---,0.00,VWS V14.01,2013-03-13 14:23:00,
2013-03-13 09:24:00,26.3,20.1,30.24,NNW,332,5.0,18.0,77,0.00,,---,0.00,VWS V14.01,2013-03-13 14:24:00,
2013-03-13 09:25:00,26.4,20.2,30.24,NW,313,5.0,18.0,77,0.00,,---,0.00,VWS V14.01,2013-03-13 14:25:00,
2013-03-13 09:26:00,26.5,20.0,30.24,WNW,303,5.0,18.0,76,0.00,,---,0.00,VWS V14.01,2013-03-13 14:26:00,
2013-03-13 09:28:00,26.5,20.0,30.24,NW,313,6.0,18.0,76,0.00,,---,0.00,VWS V14.01,2013-03-13 14:28:00,
2013-03-13 09:29:00,26.5,20.0,30.24,NNW,329,5.0,18.0,76,0.00,,---,0.00,VWS V14.01,2013-03-13 14:29:00,
2013-03-13 09:30:00,26.6,20.1,30.24,WNW,290,7.0,18.0,76,0.00,,---,0.00,VWS V14.01,2013-03-13 14:30:00,
2013-03-13 09:32:00,26.7,20.2,30.24,NW,309,9.0,12.0,76,0.00,,---,0.00,VWS V14.01,2013-03-13 14:32:00,
2013-03-13 09:34:00,26.7,19.9,30.24,NNW,337,9.0,12.0,75,0.00,,---,0.00,VWS V14.01,2013-03-13 14:34:00,
2013-03-13 09:35:00,26.7,19.9,30.25,NNW,344,11.0,17.0,75,0.00,,---,0.00,VWS V14.01,2013-03-13 14:35:00,
2013-03-13 09:37:00,26.6,19.4,30.24,West,278,6.0,17.0,74,0.00,,---,0.00,VWS V14.01,2013-03-13 14:37:00,
2013-03-13 09:39:00,26.6,19.8,30.24,NW,305,9.0,17.0,75,0.00,,---,0.00,VWS V14.01,2013-03-13 14:39:00,
2013-03-13 09:40:00,26.6,19.8,30.24,NW,307,8.0,17.0,75,0.00,,---,0.00,VWS V14.01,2013-03-13 14:40:00,
2013-03-13 09:42:00,26.8,20.0,30.25,NW,306,6.0,17.0,75,0.00,,---,0.00,VWS V14.01,2013-03-13 14:42:00,
2013-03-13 09:44:00,27.0,19.8,30.25,North,355,12.0,17.0,74,0.00,,---,0.00,VWS V14.01,2013-03-13 14:44:00,
2013-03-13 09:46:00,27.1,19.6,30.25,NW,325,13.0,17.0,73,0.00,,---,0.00,VWS V14.01,2013-03-13 14:46:00,
2013-03-13 09:47:00,27.2,19.7,30.25,NW,313,5.0,17.0,73,0.00,,---,0.00,VWS V14.01,2013-03-13 14:47:00,
2013-03-13 09:49:00,27.5,19.7,30.25,North,355,11.0,17.0,72,0.00,,---,0.00,VWS V14.01,2013-03-13 14:49:00,
2013-03-13 09:51:00,27.6,19.8,30.25,NW,321,8.0,17.0,72,0.00,,---,0.00,VWS V14.01,2013-03-13 14:51:00,
2013-03-13 09:52:00,27.7,19.5,30.25,NNW,342,5.0,17.0,71,0.00,,---,0.00,VWS V14.01,2013-03-13 14:52:00,
2013-03-13 09:54:00,27.6,19.4,30.25,WNW,299,4.0,18.0,71,0.00,,---,0.00,VWS V14.01,2013-03-13 14:54:00,
2013-03-13 09:57:00,27.7,19.9,30.26,North,360,11.0,18.0,72,0.00,,---,0.00,VWS V14.01,2013-03-13 14:57:00,
2013-03-13 09:59:00,27.9,19.7,30.26,NW,317,11.0,18.0,71,0.00,,---,0.00,VWS V14.01,2013-03-13 14:59:00,
2013-03-13 10:00:00,27.9,19.7,30.26,NW,323,6.0,18.0,71,0.00,,---,0.00,VWS V14.01,2013-03-13 15:00:00,
2013-03-13 10:02:00,27.6,19.1,30.26,NW,318,4.0,12.0,70,0.00,,---,0.00,VWS V14.01,2013-03-13 15:02:00,
2013-03-13 10:04:00,27.4,19.2,30.26,WNW,287,6.0,12.0,71,0.00,,---,0.00,VWS V14.01,2013-03-13 15:04:00,
2013-03-13 10:05:00,27.4,19.2,30.26,WNW,287,6.0,12.0,71,0.00,,---,0.00,VWS V14.01,2013-03-13 15:05:00,
2013-03-13 10:07:00,27.4,19.2,30.26,WNW,287,6.0,12.0,71,0.00,,---,0.00,VWS V14.01,2013-03-13 15:07:00,
2013-03-13 10:08:00,27.4,19.2,30.26,WNW,287,6.0,12.0,71,0.00,,---,0.00,VWS V14.01,2013-03-13 15:08:00,
2013-03-13 10:09:00,27.4,19.2,30.26,WNW,287,6.0,12.0,71,0.00,,---,0.00,VWS V14.01,2013-03-13 15:09:00,
2013-03-13 10:10:00,27.7,19.2,30.26,WNW,298,3.0,12.0,70,0.00,,---,0.00,VWS V14.01,2013-03-13 15:10:00,
2013-03-13 10:12:00,27.7,19.2,30.26,North,9,9.0,12.0,70,0.00,,---,0.00,VWS V14.01,2013-03-13 15:12:00,
2013-03-13 10:13:00,27.6,18.8,30.26,WNW,299,10.0,13.0,69,0.00,,---,0.00,VWS V14.01,2013-03-13 15:13:00,
2013-03-13 10:14:00,27.7,19.9,30.27,West,270,8.0,13.0,72,0.00,,---,0.00,VWS V14.01,2013-03-13 15:14:00,
2013-03-13 10:15:00,27.8,20.0,30.26,NNW,333,7.0,13.0,72,0.00,,---,0.00,VWS V14.01,2013-03-13 15:15:00,
2013-03-13 10:17:00,27.8,19.6,30.27,NW,304,5.0,15.0,71,0.00,,---,0.00,VWS V14.01,2013-03-13 15:17:00,
2013-03-13 10:18:00,27.8,19.6,30.26,NNW,346,7.0,15.0,71,0.00,,---,0.00,VWS V14.01,2013-03-13 15:18:00,
2013-03-13 10:19:00,27.9,19.4,30.27,NNW,345,4.0,15.0,70,0.00,,---,0.00,VWS V14.01,2013-03-13 15:19:00,
2013-03-13 10:20:00,28.0,19.5,30.27,NNW,332,5.0,15.0,70,0.00,,---,0.00,VWS V14.01,2013-03-13 15:20:00,
2013-03-13 10:22:00,28.1,19.9,30.27,NW,309,10.0,15.0,71,0.00,,---,0.00,VWS V14.01,2013-03-13 15:22:00,
2013-03-13 10:23:00,28.2,20.0,30.27,NW,307,7.0,15.0,71,0.00,,---,0.00,VWS V14.01,2013-03-13 15:23:00,
2013-03-13 10:24:00,28.1,19.9,30.27,NW,321,11.0,15.0,71,0.00,,---,0.00,VWS V14.01,2013-03-13 15:24:00,
2013-03-13 10:25:00,28.0,19.5,30.27,WNW,296,6.0,15.0,70,0.00,,---,0.00,VWS V14.01,2013-03-13 15:25:00,
2013-03-13 10:27:00,27.9,19.7,30.27,WNW,300,5.0,15.0,71,0.00,,---,0.00,VWS V14.01,2013-03-13 15:27:00,
2013-03-13 10:28:00,28.0,20.5,30.27,NW,318,6.0,15.0,73,0.00,,---,0.00,VWS V14.01,2013-03-13 15:28:00,
2013-03-13 10:29:00,28.1,20.6,30.27,NW,322,10.0,15.0,73,0.00,,---,0.00,VWS V14.01,2013-03-13 15:29:00,
2013-03-13 10:30:00,28.2,20.7,30.27,NW,308,4.0,15.0,73,0.00,,---,0.00,VWS V14.01,2013-03-13 15:30:00,
2013-03-13 10:33:00,28.1,19.9,30.27,NNW,332,5.0,9.0,71,0.00,,---,0.00,VWS V14.01,2013-03-13 15:33:00,
2013-03-13 10:34:00,28.1,18.9,30.27,NNW,344,5.0,11.0,68,0.00,,---,0.00,VWS V14.01,2013-03-13 15:34:00,
2013-03-13 10:35:00,28.2,19.0,30.27,NNW,334,4.0,11.0,68,0.00,,---,0.00,VWS V14.01,2013-03-13 15:35:00,
2013-03-13 10:38:00,28.7,20.2,30.27,NW,313,6.0,11.0,70,0.00,,---,0.00,VWS V14.01,2013-03-13 15:38:00,
2013-03-13 10:40:00,28.8,19.9,30.27,NW,320,8.0,11.0,69,0.00,,---,0.00,VWS V14.01,2013-03-13 15:40:00,
2013-03-13 10:43:00,28.4,19.9,30.28,NW,325,9.0,15.0,70,0.00,,---,0.00,VWS V14.01,2013-03-13 15:43:00,
2013-03-13 10:44:00,28.3,19.5,30.28,NW,313,8.0,15.0,69,0.00,,---,0.00,VWS V14.01,2013-03-13 15:44:00,
2013-03-13 10:45:00,28.3,19.1,30.28,NW,315,10.0,15.0,68,0.00,,---,0.00,VWS V14.01,2013-03-13 15:45:00,
2013-03-13 10:48:00,28.8,20.3,30.28,WNW,303,9.0,15.0,70,0.00,,---,0.00,VWS V14.01,2013-03-13 15:48:00,
2013-03-13 10:49:00,28.8,19.9,30.28,NW,317,5.0,15.0,69,0.00,,---,0.00,VWS V14.01,2013-03-13 15:49:00,
2013-03-13 10:50:00,28.7,19.5,30.28,WNW,286,5.0,15.0,68,0.00,,---,0.00,VWS V14.01,2013-03-13 15:50:00,
2013-03-13 10:52:00,28.5,19.3,30.28,NNW,328,7.0,15.0,68,0.00,,---,0.00,VWS V14.01,2013-03-13 15:52:00,
2013-03-13 10:53:00,28.3,19.1,30.28,NW,313,10.0,15.0,68,0.00,,---,0.00,VWS V14.01,2013-03-13 15:53:00,
2013-03-13 10:54:00,28.3,19.1,30.28,WNW,296,8.0,15.0,68,0.00,,---,0.00,VWS V14.01,2013-03-13 15:54:00,
2013-03-13 10:55:00,28.2,19.0,30.28,NNW,337,5.0,15.0,68,0.00,,---,0.00,VWS V14.01,2013-03-13 15:55:00,
2013-03-13 10:57:00,28.3,19.8,30.28,NW,324,5.0,15.0,70,0.00,,---,0.00,VWS V14.01,2013-03-13 15:57:00,
2013-03-13 10:58:00,28.4,19.2,30.28,NNW,344,5.0,15.0,68,0.00,,---,0.00,VWS V14.01,2013-03-13 15:58:00,
2013-03-13 10:59:00,28.4,19.5,30.28,NNW,336,3.0,15.0,69,0.00,,---,0.00,VWS V14.01,2013-03-13 15:59:00,
2013-03-13 11:00:00,28.6,19.7,30.28,WNW,294,7.0,15.0,69,0.00,,---,0.00,VWS V14.01,2013-03-13 16:00:00,
2013-03-13 11:02:00,28.7,20.2,30.28,West,279,7.0,11.0,70,0.00,,---,0.00,VWS V14.01,2013-03-13 16:02:00,
2013-03-13 11:04:00,28.8,20.3,30.28,NW,321,6.0,13.0,70,0.00,,---,0.00,VWS V14.01,2013-03-13 16:04:00,
2013-03-13 11:06:00,28.5,19.3,30.28,NW,325,12.0,16.0,68,0.00,,---,0.00,VWS V14.01,2013-03-13 16:06:00,
2013-03-13 11:07:00,28.4,19.2,30.29,NNW,342,8.0,16.0,68,0.00,,---,0.00,VWS V14.01,2013-03-13 16:07:00,
2013-03-13 11:09:00,28.6,19.4,30.29,North,9,6.0,16.0,68,0.00,,---,0.00,VWS V14.01,2013-03-13 16:09:00,
2013-03-13 11:10:00,28.9,20.0,30.28,NNW,344,6.0,16.0,69,0.00,,---,0.00,VWS V14.01,2013-03-13 16:10:00,
2013-03-13 11:11:00,29.4,20.8,30.29,WNW,292,7.0,16.0,70,0.00,,---,0.00,VWS V14.01,2013-03-13 16:11:00,
2013-03-13 11:12:00,29.5,19.6,30.29,NW,311,10.0,16.0,66,0.00,,---,0.00,VWS V14.01,2013-03-13 16:12:00,
2013-03-13 11:14:00,29.4,19.5,30.29,NW,323,10.0,16.0,66,0.00,,---,0.00,VWS V14.01,2013-03-13 16:14:00,
2013-03-13 11:15:00,29.2,19.6,30.29,NW,319,5.0,16.0,67,0.00,,---,0.00,VWS V14.01,2013-03-13 16:15:00,
2013-03-13 11:16:00,28.9,19.7,30.29,WNW,302,5.0,16.0,68,0.00,,---,0.00,VWS V14.01,2013-03-13 16:16:00,
2013-03-13 11:18:00,28.6,19.0,30.29,NW,313,4.0,16.0,67,0.00,,---,0.00,VWS V14.01,2013-03-13 16:18:00,
2013-03-13 11:19:00,28.5,19.3,30.29,NW,323,6.0,16.0,68,0.00,,---,0.00,VWS V14.01,2013-03-13 16:19:00,
2013-03-13 11:20:00,28.5,19.6,30.29,NW,318,6.0,16.0,69,0.00,,---,0.00,VWS V14.01,2013-03-13 16:20:00,
2013-03-13 11:22:00,28.7,19.8,30.29,NW,320,13.0,16.0,69,0.00,,---,0.00,VWS V14.01,2013-03-13 16:22:00,
2013-03-13 11:23:00,28.8,19.2,30.29,WNW,295,4.0,16.0,67,0.00,,---,0.00,VWS V14.01,2013-03-13 16:23:00,
2013-03-13 11:24:00,29.0,19.8,30.29,NW,311,9.0,16.0,68,0.00,,---,0.00,VWS V14.01,2013-03-13 16:24:00,
2013-03-13 11:25:00,29.2,19.6,30.29,NNW,333,7.0,16.0,67,0.00,,---,0.00,VWS V14.01,2013-03-13 16:25:00,
2013-03-13 11:27:00,29.6,20.7,30.29,NW,316,9.0,16.0,69,0.00,,---,0.00,VWS V14.01,2013-03-13 16:27:00,
2013-03-13 11:28:00,29.6,19.6,30.29,NW,313,8.0,16.0,66,0.00,,---,0.00,VWS V14.01,2013-03-13 16:28:00,
2013-03-13 11:29:00,29.5,19.6,30.30,North,355,9.0,16.0,66,0.00,,---,0.00,VWS V14.01,2013-03-13 16:29:00,
2013-03-13 11:30:00,29.3,19.0,30.30,NNW,333,12.0,16.0,65,0.00,,---,0.00,VWS V14.01,2013-03-13 16:30:00,
2013-03-13 11:32:00,29.0,19.4,30.29,NW,308,9.0,12.0,67,0.00,,---,0.00,VWS V14.01,2013-03-13 16:32:00,
2013-03-13 11:33:00,29.0,19.4,30.29,NNW,329,15.0,15.0,67,0.00,,---,0.00,VWS V14.01,2013-03-13 16:33:00,
2013-03-13 11:34:00,28.9,19.0,30.30,NW,321,15.0,15.0,66,0.00,,---,0.00,VWS V14.01,2013-03-13 16:34:00,
2013-03-13 11:35:00,28.8,18.5,30.30,NNW,332,12.0,15.0,65,0.00,,---,0.00,VWS V14.01,2013-03-13 16:35:00,
2013-03-13 11:37:00,28.5,18.6,30.30,WNW,286,10.0,15.0,66,0.00,,---,0.00,VWS V14.01,2013-03-13 16:37:00,
2013-03-13 11:38:00,28.7,19.1,30.30,NW,308,3.0,15.0,67,0.00,,---,0.00,VWS V14.01,2013-03-13 16:38:00,
2013-03-13 11:39:00,28.9,19.7,30.30,NNW,331,3.0,15.0,68,0.00,,---,0.00,VWS V14.01,2013-03-13 16:39:00,
2013-03-13 11:40:00,29.1,19.9,30.30,ENE,76,10.0,15.0,68,0.00,,---,0.00,VWS V14.01,2013-03-13 16:40:00,
2013-03-13 11:42:00,29.7,20.1,30.30,NW,321,3.0,15.0,67,0.00,,---,0.00,VWS V14.01,2013-03-13 16:42:00,
2013-03-13 11:44:00,30.2,20.9,30.30,NW,307,4.0,15.0,68,0.00,,---,0.00,VWS V14.01,2013-03-13 16:44:00,
2013-03-13 11:45:00,30.3,20.3,30.30,NNW,343,7.0,15.0,66,0.00,,---,0.00,VWS V14.01,2013-03-13 16:45:00,
2013-03-13 11:47:00,30.1,19.0,30.30,NNW,332,6.0,15.0,63,0.00,,---,0.00,VWS V14.01,2013-03-13 16:47:00,
2013-03-13 11:49:00,30.1,19.8,30.30,NNW,333,4.0,15.0,65,0.00,,---,0.00,VWS V14.01,2013-03-13 16:49:00,
2013-03-13 11:50:00,30.2,19.9,30.30,NNW,339,9.0,15.0,65,0.00,,---,0.00,VWS V14.01,2013-03-13 16:50:00,
2013-03-13 11:52:00,30.2,19.9,30.30,NW,306,9.0,16.0,65,0.00,,---,0.00,VWS V14.01,2013-03-13 16:52:00,
2013-03-13 11:54:00,30.1,19.8,30.30,NW,304,7.0,16.0,65,0.00,,---,0.00,VWS V14.01,2013-03-13 16:54:00,
2013-03-13 11:55:00,30.0,19.7,30.30,North,5,7.0,16.0,65,0.00,,---,0.00,VWS V14.01,2013-03-13 16:55:00,
2013-03-13 11:58:00,30.4,20.4,30.30,WNW,300,3.0,16.0,66,0.00,,---,0.00,VWS V14.01,2013-03-13 16:58:00,
2013-03-13 11:59:00,30.7,20.3,30.30,WNW,291,6.0,16.0,65,0.00,,---,0.00,VWS V14.01,2013-03-13 16:59:00,
2013-03-13 12:00:00,30.9,20.9,30.30,WNW,290,8.0,16.0,66,0.00,,---,0.00,VWS V14.01,2013-03-13 17:00:00,
2013-03-13 12:03:00,30.1,18.7,30.30,NNW,327,6.0,14.0,62,0.00,,---,0.00,VWS V14.01,2013-03-13 17:03:00,
2013-03-13 12:04:00,30.0,19.0,30.31,NW,305,5.0,14.0,63,0.00,,---,0.00,VWS V14.01,2013-03-13 17:04:00,
2013-03-13 12:05:00,30.1,20.1,30.31,NW,315,4.0,14.0,66,0.00,,---,0.00,VWS V14.01,2013-03-13 17:05:00,
2013-03-13 12:08:00,30.7,20.7,30.31,WNW,294,6.0,14.0,66,0.00,,---,0.00,VWS V14.01,2013-03-13 17:08:00,
2013-03-13 12:09:00,30.8,21.1,30.31,NW,321,6.0,14.0,67,0.00,,---,0.00,VWS V14.01,2013-03-13 17:09:00,
2013-03-13 12:10:00,30.8,20.8,30.31,NW,323,6.0,14.0,66,0.00,,---,0.00,VWS V14.01,2013-03-13 17:10:00,
2013-03-13 12:11:00,30.8,20.4,30.31,WNW,294,6.0,14.0,65,0.00,,---,0.00,VWS V14.01,2013-03-13 17:11:00,
2013-03-13 12:13:00,30.5,20.1,30.31,NNW,337,10.0,14.0,65,0.00,,---,0.00,VWS V14.01,2013-03-13 17:13:00,
2013-03-13 12:14:00,30.5,19.8,30.31,West,281,10.0,14.0,64,0.00,,---,0.00,VWS V14.01,2013-03-13 17:14:00,
2013-03-13 12:15:00,30.6,19.9,30.31,WNW,290,6.0,17.0,64,0.00,,---,0.00,VWS V14.01,2013-03-13 17:15:00,
2013-03-13 12:16:00,30.7,20.0,30.31,NW,317,11.0,19.0,64,0.00,,---,0.00,VWS V14.01,2013-03-13 17:16:00,
2013-03-13 12:18:00,30.9,20.2,30.31,North,360,11.0,19.0,64,0.00,,---,0.00,VWS V14.01,2013-03-13 17:18:00,
2013-03-13 12:19:00,31.0,19.9,30.31,NW,308,7.0,19.0,63,0.00,,---,0.00,VWS V14.01,2013-03-13 17:19:00,
2013-03-13 12:20:00,31.1,20.0,30.31,NNW,346,6.0,19.0,63,0.00,,---,0.00,VWS V14.01,2013-03-13 17:20:00,
2013-03-13 12:22:00,31.1,19.2,30.31,WNW,297,7.0,19.0,61,0.00,,---,0.00,VWS V14.01,2013-03-13 17:22:00,
2013-03-13 12:23:00,31.2,20.1,30.31,NNW,329,9.0,19.0,63,0.00,,---,0.00,VWS V14.01,2013-03-13 17:23:00,
2013-03-13 12:24:00,31.3,20.2,30.31,NW,323,11.0,19.0,63,0.00,,---,0.00,VWS V14.01,2013-03-13 17:24:00,
2013-03-13 12:25:00,31.0,19.1,30.31,NNW,327,4.0,19.0,61,0.00,,---,0.00,VWS V14.01,2013-03-13 17:25:00,
2013-03-13 12:27:00,31.0,19.1,30.31,NNW,337,2.0,19.0,61,0.00,,---,0.00,VWS V14.01,2013-03-13 17:27:00,
2013-03-13 12:29:00,31.2,20.1,30.31,North,5,7.0,19.0,63,0.00,,---,0.00,VWS V14.01,2013-03-13 17:29:00,
2013-03-13 12:30:00,31.5,20.4,30.31,NW,323,5.0,19.0,63,0.00,,---,0.00,VWS V14.01,2013-03-13 17:30:00,
2013-03-13 12:32:00,31.5,20.0,30.31,WNW,302,8.0,12.0,62,0.00,,---,0.00,VWS V14.01,2013-03-13 17:32:00,
2013-03-13 12:34:00,31.6,20.1,30.31,WNW,301,4.0,12.0,62,0.00,,---,0.00,VWS V14.01,2013-03-13 17:34:00,
2013-03-13 12:36:00,31.9,20.4,30.31,NNW,333,9.0,12.0,62,0.00,,---,0.00,VWS V14.01,2013-03-13 17:36:00,
2013-03-13 12:37:00,32.0,20.5,30.31,NW,326,4.0,12.0,62,0.00,,---,0.00,VWS V14.01,2013-03-13 17:37:00,
2013-03-13 12:39:00,32.1,20.2,30.31,NW,310,8.0,12.0,61,0.00,,---,0.00,VWS V14.01,2013-03-13 17:39:00,
2013-03-13 12:41:00,31.9,20.4,30.32,NW,323,11.0,12.0,62,0.00,,---,0.00,VWS V14.01,2013-03-13 17:41:00,
2013-03-13 12:42:00,31.9,21.1,30.31,WNW,295,13.0,14.0,64,0.00,,---,0.00,VWS V14.01,2013-03-13 17:42:00,
2013-03-13 12:44:00,31.8,20.3,30.32,NW,317,10.0,14.0,62,0.00,,---,0.00,VWS V14.01,2013-03-13 17:44:00,
2013-03-13 12:46:00,31.8,20.3,30.31,NW,317,10.0,14.0,62,0.00,,---,0.00,VWS V14.01,2013-03-13 17:46:00,
2013-03-13 12:47:00,32.2,21.0,30.31,WNW,292,5.0,14.0,63,0.00,,---,0.00,VWS V14.01,2013-03-13 17:47:00,
2013-03-13 12:49:00,32.1,20.2,30.31,WNW,298,23.0,23.0,61,0.00,,---,0.00,VWS V14.01,2013-03-13 17:49:00,
2013-03-13 12:51:00,31.8,20.3,30.31,NW,324,6.0,23.0,62,0.00,,---,0.00,VWS V14.01,2013-03-13 17:51:00,
2013-03-13 12:52:00,31.9,20.4,30.31,WNW,284,10.0,23.0,62,0.00,,---,0.00,VWS V14.01,2013-03-13 17:52:00,
2013-03-13 12:54:00,32.0,20.1,30.31,West,278,6.0,23.0,61,0.00,,---,0.00,VWS V14.01,2013-03-13 17:54:00,
2013-03-13 12:57:00,32.2,20.3,30.32,WNW,300,14.0,23.0,61,0.00,,---,0.00,VWS V14.01,2013-03-13 17:57:00,
2013-03-13 12:59:00,32.1,19.8,30.31,West,275,10.0,23.0,60,0.00,,---,0.00,VWS V14.01,2013-03-13 17:59:00,
2013-03-13 13:02:00,32.6,21.8,30.32,WNW,295,5.0,12.0,64,0.00,,---,0.00,VWS V14.01,2013-03-13 18:02:00,
2013-03-13 13:03:00,32.9,22.1,30.31,WNW,303,6.0,12.0,64,0.00,,---,0.00,VWS V14.01,2013-03-13 18:03:00,
2013-03-13 13:04:00,33.2,20.8,30.31,NW,312,6.0,12.0,60,0.00,,---,0.00,VWS V14.01,2013-03-13 18:04:00,
2013-03-13 13:07:00,33.4,21.0,30.31,NNW,344,7.0,12.0,60,0.00,,---,0.00,VWS V14.01,2013-03-13 18:07:00,
2013-03-13 13:08:00,33.3,20.5,30.31,North,360,4.0,12.0,59,0.00,,---,0.00,VWS V14.01,2013-03-13 18:08:00,
2013-03-13 13:09:00,33.4,20.6,30.31,NW,313,13.0,13.0,59,0.00,,---,0.00,VWS V14.01,2013-03-13 18:09:00,
2013-03-13 13:12:00,33.3,19.7,30.31,NW,305,6.0,13.0,57,0.00,,---,0.00,VWS V14.01,2013-03-13 18:12:00,
2013-03-13 13:13:00,33.2,19.6,30.31,NW,317,7.0,13.0,57,0.00,,---,0.00,VWS V14.01,2013-03-13 18:13:00,
2013-03-13 13:14:00,33.2,20.4,30.32,WNW,297,10.0,13.0,59,0.00,,---,0.00,VWS V14.01,2013-03-13 18:14:00,
2013-03-13 13:17:00,33.0,20.2,30.31,NW,318,5.0,16.0,59,0.00,,---,0.00,VWS V14.01,2013-03-13 18:17:00,
2013-03-13 13:18:00,33.0,21.4,30.31,NW,310,13.0,16.0,62,0.00,,---,0.00,VWS V14.01,2013-03-13 18:18:00,
2013-03-13 13:19:00,33.2,21.2,30.31,NW,324,6.0,16.0,61,0.00,,---,0.00,VWS V14.01,2013-03-13 18:19:00,
2013-03-13 13:22:00,33.3,19.7,30.31,NW,319,12.0,16.0,57,0.00,,---,0.00,VWS V14.01,2013-03-13 18:22:00,
2013-03-13 13:23:00,33.2,19.6,30.31,WNW,299,7.0,16.0,57,0.00,,---,0.00,VWS V14.01,2013-03-13 18:23:00,
2013-03-13 13:24:00,32.9,19.8,30.31,West,280,4.0,16.0,58,0.00,,---,0.00,VWS V14.01,2013-03-13 18:24:00,
2013-03-13 13:25:00,33.0,20.6,30.31,WNW,290,5.0,16.0,60,0.00,,---,0.00,VWS V14.01,2013-03-13 18:25:00,
2013-03-13 13:27:00,33.2,20.8,30.31,NW,313,6.0,16.0,60,0.00,,---,0.00,VWS V14.01,2013-03-13 18:27:00,
2013-03-13 13:28:00,33.3,20.9,30.31,NW,310,10.0,16.0,60,0.00,,---,0.00,VWS V14.01,2013-03-13 18:28:00,
2013-03-13 13:30:00,33.5,21.1,30.31,North,360,3.0,16.0,60,0.00,,---,0.00,VWS V14.01,2013-03-13 18:30:00,
2013-03-13 13:32:00,34.0,21.2,30.31,NNW,341,12.0,12.0,59,0.00,,---,0.00,VWS V14.01,2013-03-13 18:32:00,
2013-03-13 13:33:00,34.0,20.8,30.31,North,355,6.0,14.0,58,0.00,,---,0.00,VWS V14.01,2013-03-13 18:33:00,
2013-03-13 13:35:00,33.9,20.3,30.31,NW,323,3.0,14.0,57,0.00,,---,0.00,VWS V14.01,2013-03-13 18:35:00,
2013-03-13 13:37:00,34.1,20.5,30.31,NW,319,6.0,14.0,57,0.00,,---,0.00,VWS V14.01,2013-03-13 18:37:00,
2013-03-13 13:38:00,34.1,20.9,30.31,NNW,348,7.0,14.0,58,0.00,,---,0.00,VWS V14.01,2013-03-13 18:38:00,
2013-03-13 13:40:00,33.9,19.9,30.31,WNW,298,5.0,14.0,56,0.00,,---,0.00,VWS V14.01,2013-03-13 18:40:00,
2013-03-13 13:43:00,33.8,19.8,30.31,NW,306,4.0,14.0,56,0.00,,---,0.00,VWS V14.01,2013-03-13 18:43:00,
2013-03-13 13:45:00,34.1,20.9,30.30,NW,321,6.0,14.0,58,0.00,,---,0.00,VWS V14.01,2013-03-13 18:45:00,
2013-03-13 13:48:00,34.0,20.4,30.31,WNW,288,5.0,14.0,57,0.00,,---,0.00,VWS V14.01,2013-03-13 18:48:00,
2013-03-13 13:50:00,34.1,21.3,30.31,NW,321,7.0,16.0,59,0.00,,---,0.00,VWS V14.01,2013-03-13 18:50:00,
2013-03-13 13:53:00,34.0,19.5,30.31,NW,314,15.0,16.0,55,0.00,,---,0.00,VWS V14.01,2013-03-13 18:53:00,
2013-03-13 13:55:00,34.0,20.4,30.31,WNW,286,11.0,16.0,57,0.00,,---,0.00,VWS V14.01,2013-03-13 18:55:00,
2013-03-13 13:58:00,34.3,20.7,30.31,NNE,12,6.0,16.0,57,0.00,,---,0.00,VWS V14.01,2013-03-13 18:58:00,
2013-03-13 14:00:00,34.9,21.6,30.31,NNW,328,10.0,16.0,58,0.00,,---,0.00,VWS V14.01,2013-03-13 19:00:00,
2013-03-13 14:03:00,34.8,20.3,30.30,WNW,297,11.0,14.0,55,0.00,,---,0.00,VWS V14.01,2013-03-13 19:03:00,
2013-03-13 14:05:00,34.8,20.3,30.30,NW,313,6.0,14.0,55,0.00,,---,0.00,VWS V14.01,2013-03-13 19:05:00,
2013-03-13 14:06:00,34.8,21.1,30.30,NNW,348,9.0,14.0,57,0.00,,---,0.00,VWS V14.01,2013-03-13 19:06:00,
2013-03-13 14:08:00,35.2,21.1,30.30,NNW,329,10.0,17.0,56,0.00,,---,0.00,VWS V14.01,2013-03-13 19:08:00,
2013-03-13 14:09:00,35.2,21.1,30.30,NW,325,12.0,17.0,56,0.00,,---,0.00,VWS V14.01,2013-03-13 19:09:00,
2013-03-13 14:10:00,35.3,21.2,30.30,NW,319,6.0,17.0,56,0.00,,---,0.00,VWS V14.01,2013-03-13 19:10:00,
2013-03-13 14:11:00,35.3,21.2,30.30,NW,304,5.0,17.0,56,0.00,,---,0.00,VWS V14.01,2013-03-13 19:11:00,
2013-03-13 14:14:00,35.6,21.0,30.30,North,355,3.0,17.0,55,0.00,,---,0.00,VWS V14.01,2013-03-13 19:14:00,
2013-03-13 14:16:00,35.8,21.6,30.30,WNW,284,7.0,17.0,56,0.00,,---,0.00,VWS V14.01,2013-03-13 19:16:00,
2013-03-13 14:19:00,35.7,20.3,30.30,NW,316,10.0,17.0,53,0.00,,---,0.00,VWS V14.01,2013-03-13 19:19:00,
2013-03-13 14:21:00,35.5,20.5,30.30,WNW,303,6.0,17.0,54,0.00,,---,0.00,VWS V14.01,2013-03-13 19:21:00,
2013-03-13 14:24:00,35.5,20.5,30.30,NNW,346,6.0,17.0,54,0.00,,---,0.00,VWS V14.01,2013-03-13 19:24:00,
2013-03-13 14:26:00,35.8,20.8,30.30,NW,315,6.0,17.0,54,0.00,,---,0.00,VWS V14.01,2013-03-13 19:26:00,
2013-03-13 14:29:00,35.7,20.3,30.30,NW,315,4.0,17.0,53,0.00,,---,0.00,VWS V14.01,2013-03-13 19:29:00,
2013-03-13 14:30:00,35.7,20.7,30.30,NNE,26,6.0,17.0,54,0.00,,---,0.00,VWS V14.01,2013-03-13 19:30:00,
2013-03-13 14:31:00,35.6,20.2,30.30,NW,307,9.0,9.0,53,0.00,,---,0.00,VWS V14.01,2013-03-13 19:31:00,
2013-03-13 14:32:00,35.6,20.2,30.30,NW,304,7.0,11.0,53,0.00,,---,0.00,VWS V14.01,2013-03-13 19:32:00,
2013-03-13 14:34:00,35.6,21.5,30.30,NW,308,17.0,17.0,56,0.00,,---,0.00,VWS V14.01,2013-03-13 19:34:00,
2013-03-13 14:35:00,35.7,22.0,30.30,WNW,292,13.0,18.0,57,0.00,,---,0.00,VWS V14.01,2013-03-13 19:35:00,
2013-03-13 14:37:00,35.6,20.6,30.30,WNW,299,14.0,18.0,54,0.00,,---,0.00,VWS V14.01,2013-03-13 19:37:00,
2013-03-13 14:39:00,35.1,20.6,30.30,WNW,297,10.0,18.0,55,0.00,,---,0.00,VWS V14.01,2013-03-13 19:39:00,
2013-03-13 14:40:00,35.1,20.6,30.30,NW,312,9.0,18.0,55,0.00,,---,0.00,VWS V14.01,2013-03-13 19:40:00,
2013-03-13 14:42:00,35.0,19.6,30.30,WNW,302,9.0,18.0,53,0.00,,---,0.00,VWS V14.01,2013-03-13 19:42:00,
2013-03-13 14:45:00,35.6,21.5,30.30,WNW,294,6.0,18.0,56,0.00,,---,0.00,VWS V14.01,2013-03-13 19:45:00,
2013-03-13 14:47:00,35.7,21.1,30.30,WNW,284,11.0,18.0,55,0.00,,---,0.00,VWS V14.01,2013-03-13 19:47:00,
2013-03-13 14:50:00,35.5,21.4,30.30,NW,306,7.0,18.0,56,0.00,,---,0.00,VWS V14.01,2013-03-13 19:50:00,
2013-03-13 14:52:00,35.8,21.2,30.30,NW,315,11.0,18.0,55,0.00,,---,0.00,VWS V14.01,2013-03-13 19:52:00,
2013-03-13 14:55:00,35.6,19.7,30.30,WNW,284,6.0,18.0,52,0.00,,---,0.00,VWS V14.01,2013-03-13 19:55:00,
2013-03-13 14:57:00,35.7,20.3,30.30,NW,309,13.0,18.0,53,0.00,,---,0.00,VWS V14.01,2013-03-13 19:57:00,
2013-03-13 15:00:00,36.0,20.5,30.30,North,11,6.0,18.0,53,0.00,,---,0.00,VWS V14.01,2013-03-13 20:00:00,
2013-03-13 15:02:00,36.1,19.7,30.29,North,355,7.0,12.0,51,0.00,,---,0.00,VWS V14.01,2013-03-13 20:02:00,
2013-03-13 15:05:00,36.2,20.7,30.30,WNW,302,14.0,14.0,53,0.00,,---,0.00,VWS V14.01,2013-03-13 20:05:00,
2013-03-13 15:08:00,36.0,21.4,30.30,NW,304,15.0,18.0,55,0.00,,---,0.00,VWS V14.01,2013-03-13 20:08:00,
2013-03-13 15:10:00,35.9,20.9,30.30,WNW,288,12.0,18.0,54,0.00,,---,0.00,VWS V14.01,2013-03-13 20:10:00,
2013-03-13 15:11:00,35.9,20.9,30.30,WNW,289,14.0,18.0,54,0.00,,---,0.00,VWS V14.01,2013-03-13 20:11:00,
2013-03-13 15:13:00,35.9,20.9,30.30,NNW,348,4.0,18.0,54,0.00,,---,0.00,VWS V14.01,2013-03-13 20:13:00,
2013-03-13 15:16:00,36.6,22.0,30.30,NW,319,4.0,18.0,55,0.00,,---,0.00,VWS V14.01,2013-03-13 20:16:00,
2013-03-13 15:18:00,36.6,20.6,30.30,WNW,299,13.0,18.0,52,0.00,,---,0.00,VWS V14.01,2013-03-13 20:18:00,
2013-03-13 15:19:00,36.4,19.5,30.30,West,280,5.0,18.0,50,0.00,,---,0.00,VWS V14.01,2013-03-13 20:19:00,
2013-03-13 15:21:00,36.3,19.9,30.30,NW,316,10.0,18.0,51,0.00,,---,0.00,VWS V14.01,2013-03-13 20:21:00,
2013-03-13 15:23:00,36.4,20.5,30.30,WNW,300,12.0,18.0,52,0.00,,---,0.00,VWS V14.01,2013-03-13 20:23:00,
2013-03-13 15:24:00,36.4,19.1,30.30,NW,319,3.0,18.0,49,0.00,,---,0.00,VWS V14.01,2013-03-13 20:24:00,
2013-03-13 15:26:00,36.6,19.7,30.30,NNE,15,13.0,18.0,50,0.00,,---,0.00,VWS V14.01,2013-03-13 20:26:00,
2013-03-13 15:28:00,36.3,19.0,30.30,NNW,335,6.0,18.0,49,0.00,,---,0.00,VWS V14.01,2013-03-13 20:28:00,
2013-03-13 15:29:00,36.3,19.9,30.30,NW,325,10.0,18.0,51,0.00,,---,0.00,VWS V14.01,2013-03-13 20:29:00,
2013-03-13 15:31:00,36.4,20.0,30.30,NNW,336,9.0,11.0,51,0.00,,---,0.00,VWS V14.01,2013-03-13 20:31:00,
2013-03-13 15:32:00,36.4,20.0,30.30,NW,309,12.0,12.0,51,0.00,,---,0.00,VWS V14.01,2013-03-13 20:32:00,
2013-03-13 15:33:00,36.4,20.5,30.31,WNW,286,10.0,14.0,52,0.00,,---,0.00,VWS V14.01,2013-03-13 20:33:00,
2013-03-13 15:34:00,36.5,20.6,30.30,WNW,294,7.0,14.0,52,0.00,,---,0.00,VWS V14.01,2013-03-13 20:34:00,
2013-03-13 15:37:00,36.5,20.1,30.30,NW,311,5.0,14.0,51,0.00,,---,0.00,VWS V14.01,2013-03-13 20:37:00,
2013-03-13 15:38:00,36.7,19.8,30.30,NW,306,12.0,14.0,50,0.00,,---,0.00,VWS V14.01,2013-03-13 20:38:00,
2013-03-13 15:39:00,36.7,19.4,30.30,NW,321,8.0,14.0,49,0.00,,---,0.00,VWS V14.01,2013-03-13 20:39:00,
2013-03-13 15:42:00,37.1,22.4,30.30,WNW,285,9.0,14.0,55,0.00,,---,0.00,VWS V14.01,2013-03-13 20:42:00,
2013-03-13 15:43:00,37.3,21.8,30.30,WNW,290,9.0,14.0,53,0.00,,---,0.00,VWS V14.01,2013-03-13 20:43:00,
2013-03-13 15:45:00,37.1,21.1,30.30,NW,325,10.0,20.0,52,0.00,,---,0.00,VWS V14.01,2013-03-13 20:45:00,
2013-03-13 15:47:00,36.5,18.2,30.30,WNW,295,10.0,20.0,47,0.00,,---,0.00,VWS V14.01,2013-03-13 20:47:00,
2013-03-13 15:48:00,36.4,20.5,30.30,NW,305,12.0,20.0,52,0.00,,---,0.00,VWS V14.01,2013-03-13 20:48:00,
2013-03-13 15:50:00,36.7,20.8,30.30,WNW,288,6.0,20.0,52,0.00,,---,0.00,VWS V14.01,2013-03-13 20:50:00,
2013-03-13 15:52:00,36.5,18.7,30.30,WNW,300,6.0,20.0,48,0.00,,---,0.00,VWS V14.01,2013-03-13 20:52:00,
2013-03-13 15:53:00,36.6,19.7,30.30,NW,306,9.0,20.0,50,0.00,,---,0.00,VWS V14.01,2013-03-13 20:53:00,
2013-03-13 15:55:00,36.8,20.8,30.30,WNW,297,13.0,20.0,52,0.00,,---,0.00,VWS V14.01,2013-03-13 20:55:00,
2013-03-13 15:57:00,36.7,19.4,30.30,WNW,296,9.0,20.0,49,0.00,,---,0.00,VWS V14.01,2013-03-13 20:57:00,
2013-03-13 15:58:00,36.7,18.9,30.30,NW,304,11.0,20.0,48,0.00,,---,0.00,VWS V14.01,2013-03-13 20:58:00,
2013-03-13 16:01:00,36.7,19.4,30.30,NNW,332,4.0,20.0,49,0.00,,---,0.00,VWS V14.01,2013-03-13 21:01:00,
2013-03-13 16:02:00,36.9,19.5,30.30,WNW,290,6.0,15.0,49,0.00,,---,0.00,VWS V14.01,2013-03-13 21:02:00,
2013-03-13 16:03:00,36.8,19.0,30.30,WNW,302,19.0,19.0,48,0.00,,---,0.00,VWS V14.01,2013-03-13 21:03:00,
2013-03-13 16:06:00,36.5,18.7,30.30,WNW,293,5.0,19.0,48,0.00,,---,0.00,VWS V14.01,2013-03-13 21:06:00,
2013-03-13 16:07:00,36.6,18.8,30.30,NW,310,4.0,19.0,48,0.00,,---,0.00,VWS V14.01,2013-03-13 21:07:00,
2013-03-13 16:08:00,36.7,18.9,30.30,NW,320,7.0,19.0,48,0.00,,---,0.00,VWS V14.01,2013-03-13 21:08:00,
2013-03-13 16:11:00,37.0,18.7,30.31,NW,307,4.0,19.0,47,0.00,,---,0.00,VWS V14.01,2013-03-13 21:11:00,
2013-03-13 16:12:00,37.0,19.1,30.30,WNW,296,13.0,19.0,48,0.00,,---,0.00,VWS V14.01,2013-03-13 21:12:00,
2013-03-13 16:13:00,37.0,19.1,30.30,NW,321,11.0,19.0,48,0.00,,---,0.00,VWS V14.01,2013-03-13 21:13:00,
2013-03-13 16:16:00,36.6,19.3,30.31,WNW,299,14.0,19.0,49,0.00,,---,0.00,VWS V14.01,2013-03-13 21:16:00,
2013-03-13 16:17:00,36.6,18.8,30.31,WNW,290,9.0,19.0,48,0.00,,---,0.00,VWS V14.01,2013-03-13 21:17:00,
2013-03-13 16:18:00,36.5,18.7,30.31,WNW,285,10.0,19.0,48,0.00,,---,0.00,VWS V14.01,2013-03-13 21:18:00,
2013-03-13 16:22:00,36.9,19.5,30.31,WNW,294,11.0,19.0,49,0.00,,---,0.00,VWS V14.01,2013-03-13 21:22:00,
2013-03-13 16:23:00,36.7,18.9,30.31,WNW,290,15.0,19.0,48,0.00,,---,0.00,VWS V14.01,2013-03-13 21:23:00,
2013-03-13 16:27:00,36.8,20.4,30.30,WNW,286,12.0,19.0,51,0.00,,---,0.00,VWS V14.01,2013-03-13 21:27:00,
2013-03-13 16:28:00,36.8,19.9,30.30,WNW,282,14.0,19.0,50,0.00,,---,0.00,VWS V14.01,2013-03-13 21:28:00,
2013-03-13 16:32:00,36.7,20.8,30.30,WNW,298,9.0,16.0,52,0.00,,---,0.00,VWS V14.01,2013-03-13 21:32:00,
2013-03-13 16:33:00,36.8,20.8,30.30,NW,319,11.0,16.0,52,0.00,,---,0.00,VWS V14.01,2013-03-13 21:33:00,
2013-03-13 16:34:00,36.8,19.5,30.31,WNW,298,6.0,16.0,49,0.00,,---,0.00,VWS V14.01,2013-03-13 21:34:00,
2013-03-13 16:37:00,36.9,19.1,30.31,NNW,330,14.0,16.0,48,0.00,,---,0.00,VWS V14.01,2013-03-13 21:37:00,
2013-03-13 16:38:00,36.8,19.0,30.31,NW,311,10.0,16.0,48,0.00,,---,0.00,VWS V14.01,2013-03-13 21:38:00,
2013-03-13 16:39:00,36.8,19.0,30.31,NW,309,6.0,16.0,48,0.00,,---,0.00,VWS V14.01,2013-03-13 21:39:00,
2013-03-13 16:43:00,37.2,20.8,30.30,WNW,296,6.0,16.0,51,0.00,,---,0.00,VWS V14.01,2013-03-13 21:43:00,
2013-03-13 16:44:00,37.1,18.8,30.30,WNW,283,10.0,16.0,47,0.00,,---,0.00,VWS V14.01,2013-03-13 21:44:00,
2013-03-13 16:48:00,37.1,18.8,30.30,NW,311,5.0,16.0,47,0.00,,---,0.00,VWS V14.01,2013-03-13 21:48:00,
2013-03-13 16:49:00,37.0,18.7,30.30,NW,317,9.0,16.0,47,0.00,,---,0.00,VWS V14.01,2013-03-13 21:49:00,
2013-03-13 16:50:00,36.9,18.1,30.30,WNW,286,7.0,16.0,46,0.00,,---,0.00,VWS V14.01,2013-03-13 21:50:00,
2013-03-13 16:53:00,36.9,18.6,30.30,NW,304,6.0,16.0,47,0.00,,---,0.00,VWS V14.01,2013-03-13 21:53:00,
2013-03-13 16:54:00,36.9,18.6,30.31,North,355,9.0,16.0,47,0.00,,---,0.00,VWS V14.01,2013-03-13 21:54:00,
2013-03-13 16:55:00,36.9,18.6,30.30,NW,320,4.0,16.0,47,0.00,,---,0.00,VWS V14.01,2013-03-13 21:55:00,
2013-03-13 16:58:00,37.0,18.2,30.30,NNW,331,9.0,16.0,46,0.00,,---,0.00,VWS V14.01,2013-03-13 21:58:00,
2013-03-13 16:59:00,37.0,18.2,30.30,WNW,290,12.0,16.0,46,0.00,,---,0.00,VWS V14.01,2013-03-13 21:59:00,
2013-03-13 17:00:00,36.9,17.6,30.30,WNW,292,9.0,16.0,45,0.00,,---,0.00,VWS V14.01,2013-03-13 22:00:00,
2013-03-13 17:03:00,36.7,17.9,30.30,NNW,329,6.0,10.0,46,0.00,,---,0.00,VWS V14.01,2013-03-13 22:03:00,
2013-03-13 17:04:00,36.8,18.5,30.30,NW,304,7.0,11.0,47,0.00,,---,0.00,VWS V14.01,2013-03-13 22:04:00,
2013-03-13 17:05:00,36.9,18.6,30.30,NW,309,5.0,12.0,47,0.00,,---,0.00,VWS V14.01,2013-03-13 22:05:00,
2013-03-13 17:08:00,36.9,18.1,30.30,North,355,6.0,12.0,46,0.00,,---,0.00,VWS V14.01,2013-03-13 22:08:00,
2013-03-13 17:09:00,36.9,18.6,30.30,NNW,329,2.0,12.0,47,0.00,,---,0.00,VWS V14.01,2013-03-13 22:09:00,
2013-03-13 17:10:00,37.0,18.7,30.30,NNW,333,3.0,12.0,47,0.00,,---,0.00,VWS V14.01,2013-03-13 22:10:00,
2013-03-13 17:13:00,37.1,18.8,30.30,NW,317,10.0,13.0,47,0.00,,---,0.00,VWS V14.01,2013-03-13 22:13:00,
2013-03-13 17:14:00,37.1,18.8,30.30,NNW,335,4.0,13.0,47,0.00,,---,0.00,VWS V14.01,2013-03-13 22:14:00,
2013-03-13 17:15:00,37.1,19.7,30.30,NW,323,4.0,13.0,49,0.00,,---,0.00,VWS V14.01,2013-03-13 22:15:00,
2013-03-13 17:18:00,37.1,18.8,30.30,WNW,283,10.0,14.0,47,0.00,,---,0.00,VWS V14.01,2013-03-13 22:18:00,
2013-03-13 17:19:00,37.1,18.2,30.30,NNW,332,5.0,14.0,46,0.00,,---,0.00,VWS V14.01,2013-03-13 22:19:00,
2013-03-13 17:20:00,37.1,18.2,30.30,NNW,332,5.0,14.0,46,0.00,,---,0.00,VWS V14.01,2013-03-13 22:20:00,
2013-03-13 17:23:00,37.1,19.7,30.31,NW,306,6.0,15.0,49,0.00,,---,0.00,VWS V14.01,2013-03-13 22:23:00,
2013-03-13 17:25:00,37.1,19.2,30.31,WNW,302,6.0,15.0,48,0.00,,---,0.00,VWS V14.01,2013-03-13 22:25:00,
2013-03-13 17:28:00,37.0,19.1,30.31,WNW,289,6.0,15.0,48,0.00,,---,0.00,VWS V14.01,2013-03-13 22:28:00,
2013-03-13 17:30:00,37.0,19.1,30.31,NNW,334,11.0,15.0,48,0.00,,---,0.00,VWS V14.01,2013-03-13 22:30:00,
2013-03-13 17:33:00,36.6,17.8,30.31,NW,318,7.0,12.0,46,0.00,,---,0.00,VWS V14.01,2013-03-13 22:33:00,
2013-03-13 17:35:00,36.6,18.8,30.31,NNW,337,5.0,12.0,48,0.00,,---,0.00,VWS V14.01,2013-03-13 22:35:00,
2013-03-13 17:39:00,36.7,18.9,30.31,NW,304,6.0,12.0,48,0.00,,---,0.00,VWS V14.01,2013-03-13 22:39:00,
2013-03-13 17:40:00,36.8,19.0,30.31,NW,309,5.0,12.0,48,0.00,,---,0.00,VWS V14.01,2013-03-13 22:40:00,
2013-03-13 17:41:00,36.8,18.0,30.31,WNW,285,11.0,12.0,46,0.00,,---,0.00,VWS V14.01,2013-03-13 22:41:00,
2013-03-13 17:44:00,36.7,19.4,30.31,NW,323,7.0,13.0,49,0.00,,---,0.00,VWS V14.01,2013-03-13 22:44:00,
2013-03-13 17:45:00,36.7,19.4,30.31,NW,325,11.0,13.0,49,0.00,,---,0.00,VWS V14.01,2013-03-13 22:45:00,
2013-03-13 17:46:00,36.7,18.9,30.31,WNW,284,4.0,13.0,48,0.00,,---,0.00,VWS V14.01,2013-03-13 22:46:00,
2013-03-13 17:49:00,36.8,18.5,30.31,WNW,294,9.0,13.0,47,0.00,,---,0.00,VWS V14.01,2013-03-13 22:49:00,
2013-03-13 17:50:00,36.7,18.4,30.31,WNW,284,6.0,13.0,47,0.00,,---,0.00,VWS V14.01,2013-03-13 22:50:00,
2013-03-13 17:51:00,36.7,18.4,30.31,NNW,336,11.0,13.0,47,0.00,,---,0.00,VWS V14.01,2013-03-13 22:51:00,
2013-03-13 17:54:00,36.5,18.7,30.31,NW,320,2.0,13.0,48,0.00,,---,0.00,VWS V14.01,2013-03-13 22:54:00,
2013-03-13 17:55:00,36.5,19.2,30.31,NW,320,5.0,13.0,49,0.00,,---,0.00,VWS V14.01,2013-03-13 22:55:00,
2013-03-13 17:57:00,36.5,18.7,30.31,NW,319,4.0,13.0,48,0.00,,---,0.00,VWS V14.01,2013-03-13 22:57:00,
2013-03-13 17:59:00,36.4,19.1,30.31,NW,316,6.0,13.0,49,0.00,,---,0.00,VWS V14.01,2013-03-13 22:59:00,
2013-03-13 18:00:00,36.4,19.1,30.31,NW,313,6.0,13.0,49,0.00,,---,0.00,VWS V14.01,2013-03-13 23:00:00,
2013-03-13 18:02:00,36.3,19.0,30.31,NW,323,3.0,9.0,49,0.00,,---,0.00,VWS V14.01,2013-03-13 23:02:00,
2013-03-13 18:04:00,36.4,20.5,30.31,NNW,334,4.0,9.0,52,0.00,,---,0.00,VWS V14.01,2013-03-13 23:04:00,
2013-03-13 18:05:00,36.4,19.5,30.31,NW,304,3.0,9.0,50,0.00,,---,0.00,VWS V14.01,2013-03-13 23:05:00,
2013-03-13 18:06:00,36.4,19.5,30.31,NNW,334,4.0,9.0,50,0.00,,---,0.00,VWS V14.01,2013-03-13 23:06:00,
2013-03-13 18:07:00,36.4,19.1,30.31,NW,311,4.0,9.0,49,0.00,,---,0.00,VWS V14.01,2013-03-13 23:07:00,
2013-03-13 18:09:00,36.4,19.1,30.31,NW,323,4.0,9.0,49,0.00,,---,0.00,VWS V14.01,2013-03-13 23:09:00,
2013-03-13 18:10:00,36.4,19.1,30.31,NW,323,4.0,9.0,49,0.00,,---,0.00,VWS V14.01,2013-03-13 23:10:00,
2013-03-13 18:11:00,36.4,19.1,30.31,NW,323,4.0,9.0,49,0.00,,---,0.00,VWS V14.01,2013-03-13 23:11:00,
2013-03-13 18:13:00,36.3,19.0,30.31,North,355,5.0,9.0,49,0.00,,---,0.00,VWS V14.01,2013-03-13 23:13:00,
2013-03-13 18:14:00,36.2,18.9,30.31,NNW,338,6.0,9.0,49,0.00,,---,0.00,VWS V14.01,2013-03-13 23:14:00,
2013-03-13 18:16:00,36.2,18.9,30.31,WNW,302,4.0,9.0,49,0.00,,---,0.00,VWS V14.01,2013-03-13 23:16:00,
2013-03-13 18:18:00,36.1,20.2,30.31,NW,306,5.0,9.0,52,0.00,,---,0.00,VWS V14.01,2013-03-13 23:18:00,
2013-03-13 18:20:00,36.1,20.2,30.31,NW,318,3.0,9.0,52,0.00,,---,0.00,VWS V14.01,2013-03-13 23:20:00,
2013-03-13 18:21:00,36.1,20.6,30.31,NW,321,4.0,9.0,53,0.00,,---,0.00,VWS V14.01,2013-03-13 23:21:00,
2013-03-13 18:23:00,36.0,20.1,30.31,NW,315,5.0,9.0,52,0.00,,---,0.00,VWS V14.01,2013-03-13 23:23:00,
2013-03-13 18:25:00,35.9,20.0,30.31,WNW,298,4.0,9.0,52,0.00,,---,0.00,VWS V14.01,2013-03-13 23:25:00,
2013-03-13 18:26:00,35.9,20.0,30.31,WNW,286,6.0,9.0,52,0.00,,---,0.00,VWS V14.01,2013-03-13 23:26:00,
2013-03-13 18:27:00,35.9,20.0,30.31,NNW,328,5.0,9.0,52,0.00,,---,0.00,VWS V14.01,2013-03-13 23:27:00,
2013-03-13 18:28:00,35.8,20.4,30.31,NW,307,2.0,9.0,53,0.00,,---,0.00,VWS V14.01,2013-03-13 23:28:00,
2013-03-13 18:30:00,35.8,20.8,30.31,NW,321,0.0,9.0,54,0.00,,---,0.00,VWS V14.01,2013-03-13 23:30:00,
2013-03-13 18:31:00,35.7,21.1,30.31,WNW,300,2.0,3.0,55,0.00,,---,0.00,VWS V14.01,2013-03-13 23:31:00,
2013-03-13 18:32:00,35.7,21.6,30.31,North,355,4.0,4.0,56,0.00,,---,0.00,VWS V14.01,2013-03-13 23:32:00,
2013-03-13 18:34:00,35.6,21.5,30.31,NW,306,3.0,6.0,56,0.00,,---,0.00,VWS V14.01,2013-03-13 23:34:00,
2013-03-13 18:35:00,35.6,21.0,30.31,NW,316,5.0,6.0,55,0.00,,---,0.00,VWS V14.01,2013-03-13 23:35:00,
2013-03-13 18:36:00,35.5,21.4,30.31,NW,316,2.0,6.0,56,0.00,,---,0.00,VWS V14.01,2013-03-13 23:36:00,
2013-03-13 18:37:00,35.5,21.4,30.31,NW,325,4.0,6.0,56,0.00,,---,0.00,VWS V14.01,2013-03-13 23:37:00,
2013-03-13 18:39:00,35.4,21.3,30.31,NW,315,3.0,6.0,56,0.00,,---,0.00,VWS V14.01,2013-03-13 23:39:00,
2013-03-13 18:40:00,35.3,21.2,30.31,NNW,331,3.0,6.0,56,0.00,,---,0.00,VWS V14.01,2013-03-13 23:40:00,
2013-03-13 18:42:00,35.2,21.1,30.31,NW,317,2.0,6.0,56,0.00,,---,0.00,VWS V14.01,2013-03-13 23:42:00,
2013-03-13 18:44:00,35.0,20.9,30.31,NW,304,3.0,7.0,56,0.00,,---,0.00,VWS V14.01,2013-03-13 23:44:00,
2013-03-13 18:45:00,34.9,21.2,30.31,WNW,300,2.0,7.0,57,0.00,,---,0.00,VWS V14.01,2013-03-13 23:45:00,
2013-03-13 18:47:00,34.8,21.1,30.31,WNW,291,5.0,7.0,57,0.00,,---,0.00,VWS V14.01,2013-03-13 23:47:00,
2013-03-13 18:49:00,34.6,21.4,30.31,NW,309,4.0,7.0,58,0.00,,---,0.00,VWS V14.01,2013-03-13 23:49:00,
2013-03-13 18:50:00,34.6,21.4,30.31,NW,321,2.0,7.0,58,0.00,,---,0.00,VWS V14.01,2013-03-13 23:50:00,
2013-03-13 18:52:00,34.4,22.0,30.31,NW,314,3.0,7.0,60,0.00,,---,0.00,VWS V14.01,2013-03-13 23:52:00,
2013-03-13 18:54:00,34.3,22.3,30.31,NW,323,3.0,7.0,61,0.00,,---,0.00,VWS V14.01,2013-03-13 23:54:00,
2013-03-13 18:55:00,34.1,22.1,30.31,NW,318,2.0,7.0,61,0.00,,---,0.00,VWS V14.01,2013-03-13 23:55:00,
2013-03-13 18:57:00,34.0,22.4,30.31,NW,311,2.0,7.0,62,0.00,,---,0.00,VWS V14.01,2013-03-13 23:57:00,
2013-03-13 18:59:00,33.8,21.8,30.31,WNW,298,3.0,7.0,61,0.00,,---,0.00,VWS V14.01,2013-03-13 23:59:00,
2013-03-13 19:01:00,33.7,22.1,30.31,NW,317,1.0,7.0,62,0.00,,---,0.00,VWS V14.01,2013-03-14 00:01:00,
2013-03-13 19:02:00,33.6,21.6,30.31,WNW,294,2.0,4.0,61,0.00,,---,0.00,VWS V14.01,2013-03-14 00:02:00,
2013-03-13 19:03:00,33.5,21.5,30.31,NW,311,0.0,4.0,61,0.00,,---,0.00,VWS V14.01,2013-03-14 00:03:00,
2013-03-13 19:04:00,33.4,21.4,30.31,WNW,302,2.0,4.0,61,0.00,,---,0.00,VWS V14.01,2013-03-14 00:04:00,
2013-03-13 19:06:00,33.3,21.3,30.31,NW,311,1.0,4.0,61,0.00,,---,0.00,VWS V14.01,2013-03-14 00:06:00,
2013-03-13 19:07:00,33.2,21.6,30.31,NW,323,0.0,4.0,62,0.00,,---,0.00,VWS V14.01,2013-03-14 00:07:00,
2013-03-13 19:08:00,33.1,21.5,30.31,NNW,333,2.0,4.0,62,0.00,,---,0.00,VWS V14.01,2013-03-14 00:08:00,
2013-03-13 19:09:00,33.0,21.8,30.31,NW,317,2.0,4.0,63,0.00,,---,0.00,VWS V14.01,2013-03-14 00:09:00,
2013-03-13 19:12:00,32.8,22.0,30.31,WNW,297,3.0,4.0,64,0.00,,---,0.00,VWS V14.01,2013-03-14 00:12:00,
2013-03-13 19:13:00,32.7,21.5,30.31,WNW,298,2.0,4.0,63,0.00,,---,0.00,VWS V14.01,2013-03-14 00:13:00,
2013-03-13 19:14:00,32.7,21.5,30.31,WNW,298,2.0,4.0,63,0.00,,---,0.00,VWS V14.01,2013-03-14 00:14:00,
2013-03-13 19:17:00,32.5,21.7,30.31,NW,306,3.0,4.0,64,0.00,,---,0.00,VWS V14.01,2013-03-14 00:17:00,
2013-03-13 19:18:00,32.5,21.7,30.31,WNW,292,2.0,5.0,64,0.00,,---,0.00,VWS V14.01,2013-03-14 00:18:00,
2013-03-13 19:19:00,32.5,21.7,30.31,WNW,299,2.0,5.0,64,0.00,,---,0.00,VWS V14.01,2013-03-14 00:19:00,
2013-03-13 19:22:00,32.5,21.7,30.31,WNW,298,3.0,6.0,64,0.00,,---,0.00,VWS V14.01,2013-03-14 00:22:00,
2013-03-13 19:23:00,32.4,21.6,30.31,WNW,292,6.0,9.0,64,0.00,,---,0.00,VWS V14.01,2013-03-14 00:23:00,
2013-03-13 19:24:00,32.4,21.6,30.31,WNW,295,4.0,9.0,64,0.00,,---,0.00,VWS V14.01,2013-03-14 00:24:00,
2013-03-13 19:27:00,32.3,21.9,30.31,NW,325,3.0,9.0,65,0.00,,---,0.00,VWS V14.01,2013-03-14 00:27:00,
2013-03-13 19:28:00,32.3,21.9,30.31,NNW,335,2.0,9.0,65,0.00,,---,0.00,VWS V14.01,2013-03-14 00:28:00,
2013-03-13 19:29:00,32.2,21.8,30.31,WNW,303,4.0,9.0,65,0.00,,---,0.00,VWS V14.01,2013-03-14 00:29:00,
2013-03-13 19:32:00,32.0,21.9,30.31,NW,305,1.0,3.0,66,0.00,,---,0.00,VWS V14.01,2013-03-14 00:32:00,
2013-03-13 19:33:00,32.0,21.9,30.31,NW,318,4.0,4.0,66,0.00,,---,0.00,VWS V14.01,2013-03-14 00:33:00,
2013-03-13 19:34:00,32.0,21.9,30.31,NW,318,1.0,4.0,66,0.00,,---,0.00,VWS V14.01,2013-03-14 00:34:00,
2013-03-13 19:37:00,31.8,22.1,30.31,NW,317,2.0,4.0,67,0.00,,---,0.00,VWS V14.01,2013-03-14 00:37:00,
2013-03-13 19:39:00,31.7,22.0,30.31,NW,317,0.0,4.0,67,0.00,,---,0.00,VWS V14.01,2013-03-14 00:39:00,
2013-03-13 19:42:00,31.5,22.2,30.31,NW,317,0.0,4.0,68,0.00,,---,0.00,VWS V14.01,2013-03-14 00:42:00,
2013-03-13 19:44:00,31.4,22.4,30.31,NW,317,0.0,4.0,69,0.00,,---,0.00,VWS V14.01,2013-03-14 00:44:00,
2013-03-13 19:47:00,31.1,22.5,30.31,NW,317,0.0,4.0,70,0.00,,---,0.00,VWS V14.01,2013-03-14 00:47:00,
2013-03-13 19:49:00,31.0,22.4,30.31,NW,317,0.0,4.0,70,0.00,,---,0.00,VWS V14.01,2013-03-14 00:49:00,
2013-03-13 19:52:00,30.8,22.5,30.31,NW,317,0.0,4.0,71,0.00,,---,0.00,VWS V14.01,2013-03-14 00:52:00,
2013-03-13 19:54:00,30.7,22.4,30.31,NW,317,1.0,4.0,71,0.00,,---,0.00,VWS V14.01,2013-03-14 00:54:00,
2013-03-13 19:58:00,30.5,22.6,30.31,NW,317,0.0,4.0,72,0.00,,---,0.00,VWS V14.01,2013-03-14 00:58:00,
2013-03-13 19:59:00,30.5,22.6,30.31,NW,317,0.0,4.0,72,0.00,,---,0.00,VWS V14.01,2013-03-14 00:59:00,
2013-03-13 20:00:00,30.5,22.6,30.31,NW,317,0.0,4.0,72,0.00,,---,0.00,VWS V14.01,2013-03-14 01:00:00,
2013-03-13 20:03:00,30.4,22.1,30.31,NW,316,3.0,4.0,71,0.00,,---,0.00,VWS V14.01,2013-03-14 01:03:00,
2013-03-13 20:04:00,30.6,22.0,30.31,NW,319,0.0,4.0,70,0.00,,---,0.00,VWS V14.01,2013-03-14 01:04:00,
2013-03-13 20:05:00,30.6,22.0,30.31,NW,319,1.0,4.0,70,0.00,,---,0.00,VWS V14.01,2013-03-14 01:05:00,
2013-03-13 20:08:00,30.6,22.3,30.31,NW,306,0.0,4.0,71,0.00,,---,0.00,VWS V14.01,2013-03-14 01:08:00,
2013-03-13 20:10:00,30.6,22.3,30.31,NW,306,1.0,4.0,71,0.00,,---,0.00,VWS V14.01,2013-03-14 01:10:00,
2013-03-13 20:13:00,30.5,21.9,30.31,NW,320,0.0,4.0,70,0.00,,---,0.00,VWS V14.01,2013-03-14 01:13:00,
2013-03-13 20:15:00,30.5,21.9,30.31,NW,320,0.0,4.0,70,0.00,,---,0.00,VWS V14.01,2013-03-14 01:15:00,
2013-03-13 20:18:00,30.4,22.1,30.31,NW,320,0.0,4.0,71,0.00,,---,0.00,VWS V14.01,2013-03-14 01:18:00,
2013-03-13 20:20:00,30.3,22.0,30.30,NW,320,0.0,4.0,71,0.00,,---,0.00,VWS V14.01,2013-03-14 01:20:00,
2013-03-13 20:23:00,30.2,21.9,30.30,NW,320,0.0,4.0,71,0.00,,---,0.00,VWS V14.01,2013-03-14 01:23:00,
2013-03-13 20:25:00,30.1,21.9,30.31,NW,320,0.0,4.0,71,0.00,,---,0.00,VWS V14.01,2013-03-14 01:25:00,
2013-03-13 20:28:00,29.9,21.7,30.31,NW,320,0.0,4.0,71,0.00,,---,0.00,VWS V14.01,2013-03-14 01:28:00,
2013-03-13 20:30:00,29.8,21.6,30.31,NW,320,0.0,4.0,71,0.00,,---,0.00,VWS V14.01,2013-03-14 01:30:00,
2013-03-13 20:34:00,29.6,21.4,30.30,NW,320,0.0,0.0,71,0.00,,---,0.00,VWS V14.01,2013-03-14 01:34:00,
2013-03-13 20:35:00,29.6,21.4,30.31,NW,320,1.0,1.0,71,0.00,,---,0.00,VWS V14.01,2013-03-14 01:35:00,
2013-03-13 20:39:00,29.6,21.4,30.31,NW,320,0.0,1.0,71,0.00,,---,0.00,VWS V14.01,2013-03-14 01:39:00,
2013-03-13 20:40:00,29.6,21.4,30.31,NW,320,0.0,1.0,71,0.00,,---,0.00,VWS V14.01,2013-03-14 01:40:00,
2013-03-13 20:41:00,29.6,21.4,30.31,NW,320,0.0,1.0,71,0.00,,---,0.00,VWS V14.01,2013-03-14 01:41:00,
2013-03-13 20:44:00,29.5,21.3,30.31,NW,320,0.0,1.0,71,0.00,,---,0.00,VWS V14.01,2013-03-14 01:44:00,
2013-03-13 20:45:00,29.4,21.2,30.31,NW,320,0.0,1.0,71,0.00,,---,0.00,VWS V14.01,2013-03-14 01:45:00,
2013-03-13 20:46:00,29.4,21.2,30.31,NW,320,0.0,1.0,71,0.00,,---,0.00,VWS V14.01,2013-03-14 01:46:00,
2013-03-13 20:49:00,29.3,21.1,30.31,NW,320,0.0,1.0,71,0.00,,---,0.00,VWS V14.01,2013-03-14 01:49:00,
2013-03-13 20:50:00,29.2,21.0,30.31,NW,320,0.0,1.0,71,0.00,,---,0.00,VWS V14.01,2013-03-14 01:50:00,
2013-03-13 20:51:00,29.2,21.0,30.31,NW,320,0.0,1.0,71,0.00,,---,0.00,VWS V14.01,2013-03-14 01:51:00,
2013-03-13 20:54:00,29.1,20.9,30.31,NW,320,0.0,1.0,71,0.00,,---,0.00,VWS V14.01,2013-03-14 01:54:00,
2013-03-13 20:55:00,29.0,20.8,30.31,NW,320,0.0,1.0,71,0.00,,---,0.00,VWS V14.01,2013-03-14 01:55:00,
2013-03-13 20:56:00,29.1,20.9,30.31,NW,320,0.0,1.0,71,0.00,,---,0.00,VWS V14.01,2013-03-14 01:56:00,
2013-03-13 21:00:00,29.0,20.8,30.31,NW,320,0.0,1.0,71,0.00,,---,0.00,VWS V14.01,2013-03-14 02:00:00,
2013-03-13 21:01:00,28.9,20.7,30.31,NW,320,0.0,1.0,71,0.00,,---,0.00,VWS V14.01,2013-03-14 02:01:00,
2013-03-13 21:05:00,28.8,21.2,30.31,NW,320,0.0,1.0,73,0.00,,---,0.00,VWS V14.01,2013-03-14 02:05:00,
2013-03-13 21:06:00,28.7,21.1,30.31,NW,320,0.0,1.0,73,0.00,,---,0.00,VWS V14.01,2013-03-14 02:06:00,
2013-03-13 21:07:00,28.7,21.1,30.31,NW,313,1.0,2.0,73,0.00,,---,0.00,VWS V14.01,2013-03-14 02:07:00,
2013-03-13 21:10:00,28.5,21.0,30.31,NW,313,0.0,2.0,73,0.00,,---,0.00,VWS V14.01,2013-03-14 02:10:00,
2013-03-13 21:11:00,28.4,20.9,30.31,NW,313,2.0,2.0,73,0.00,,---,0.00,VWS V14.01,2013-03-14 02:11:00,
2013-03-13 21:13:00,28.4,20.9,30.32,NW,313,1.0,2.0,73,0.00,,---,0.00,VWS V14.01,2013-03-14 02:13:00,
2013-03-13 21:15:00,28.2,21.3,30.32,NW,313,0.0,2.0,75,0.00,,---,0.00,VWS V14.01,2013-03-14 02:15:00,
2013-03-13 21:16:00,28.0,21.4,30.32,NW,313,0.0,2.0,76,0.00,,---,0.00,VWS V14.01,2013-03-14 02:16:00,
2013-03-13 21:17:00,27.9,21.3,30.32,WNW,296,2.0,2.0,76,0.00,,---,0.00,VWS V14.01,2013-03-14 02:17:00,
2013-03-13 21:18:00,27.7,21.1,30.32,WSW,246,1.0,3.0,76,0.00,,---,0.00,VWS V14.01,2013-03-14 02:18:00,
2013-03-13 21:20:00,27.6,21.0,30.32,WSW,246,2.0,3.0,76,0.00,,---,0.00,VWS V14.01,2013-03-14 02:20:00,
2013-03-13 21:22:00,27.2,21.3,30.32,WSW,246,0.0,3.0,78,0.00,,---,0.00,VWS V14.01,2013-03-14 02:22:00,
2013-03-13 21:23:00,27.1,21.2,30.32,WSW,246,0.0,3.0,78,0.00,,---,0.00,VWS V14.01,2013-03-14 02:23:00,
2013-03-13 21:25:00,27.0,21.4,30.32,WSW,246,0.0,3.0,79,0.00,,---,0.00,VWS V14.01,2013-03-14 02:25:00,
2013-03-13 21:27:00,26.9,21.6,30.32,WSW,246,0.0,3.0,80,0.00,,---,0.00,VWS V14.01,2013-03-14 02:27:00,
2013-03-13 21:28:00,26.9,21.6,30.32,WSW,246,0.0,3.0,80,0.00,,---,0.00,VWS V14.01,2013-03-14 02:28:00,
2013-03-13 21:30:00,26.7,21.7,30.32,WSW,246,0.0,3.0,81,0.00,,---,0.00,VWS V14.01,2013-03-14 02:30:00,
2013-03-13 21:32:00,26.7,21.7,30.32,WSW,246,0.0,0.0,81,0.00,,---,0.00,VWS V14.01,2013-03-14 02:32:00,
2013-03-13 21:33:00,26.6,21.6,30.32,WSW,246,0.0,0.0,81,0.00,,---,0.00,VWS V14.01,2013-03-14 02:33:00,
2013-03-13 21:35:00,26.5,21.2,30.32,WSW,246,0.0,0.0,80,0.00,,---,0.00,VWS V14.01,2013-03-14 02:35:00,
2013-03-13 21:37:00,26.5,21.2,30.32,WSW,246,0.0,0.0,80,0.00,,---,0.00,VWS V14.01,2013-03-14 02:37:00,
2013-03-13 21:38:00,26.5,21.5,30.32,WSW,246,0.0,0.0,81,0.00,,---,0.00,VWS V14.01,2013-03-14 02:38:00,
2013-03-13 21:40:00,26.4,21.4,30.32,WSW,246,0.0,0.0,81,0.00,,---,0.00,VWS V14.01,2013-03-14 02:40:00,
2013-03-13 21:42:00,26.4,21.1,30.32,WSW,246,0.0,0.0,80,0.00,,---,0.00,VWS V14.01,2013-03-14 02:42:00,
2013-03-13 21:43:00,26.5,21.2,30.32,WSW,246,0.0,0.0,80,0.00,,---,0.00,VWS V14.01,2013-03-14 02:43:00,
2013-03-13 21:45:00,26.6,21.3,30.32,WSW,246,0.0,0.0,80,0.00,,---,0.00,VWS V14.01,2013-03-14 02:45:00,
2013-03-13 21:47:00,26.7,21.1,30.32,WSW,246,0.0,0.0,79,0.00,,---,0.00,VWS V14.01,2013-03-14 02:47:00,
2013-03-13 21:48:00,26.9,21.3,30.32,WSW,246,0.0,0.0,79,0.00,,---,0.00,VWS V14.01,2013-03-14 02:48:00,
2013-03-13 21:50:00,27.0,21.1,30.32,WSW,246,0.0,0.0,78,0.00,,---,0.00,VWS V14.01,2013-03-14 02:50:00,
2013-03-13 21:52:00,27.0,21.1,30.32,WSW,246,0.0,0.0,78,0.00,,---,0.00,VWS V14.01,2013-03-14 02:52:00,
2013-03-13 21:53:00,27.1,21.2,30.32,WSW,246,0.0,0.0,78,0.00,,---,0.00,VWS V14.01,2013-03-14 02:53:00,
2013-03-13 21:55:00,27.1,21.2,30.32,WSW,246,0.0,0.0,78,0.00,,---,0.00,VWS V14.01,2013-03-14 02:55:00,
2013-03-13 21:57:00,27.1,20.9,30.32,WSW,246,0.0,0.0,77,0.00,,---,0.00,VWS V14.01,2013-03-14 02:57:00,
2013-03-13 21:59:00,27.1,20.9,30.32,WSW,246,0.0,0.0,77,0.00,,---,0.00,VWS V14.01,2013-03-14 02:59:00,
2013-03-13 22:00:00,27.1,20.5,30.32,WSW,246,0.0,0.0,76,0.00,,---,0.00,VWS V14.01,2013-03-14 03:00:00,
2013-03-13 22:01:00,27.2,20.0,30.32,WSW,246,0.0,0.0,74,0.00,,---,0.00,VWS V14.01,2013-03-14 03:01:00,
2013-03-13 22:02:00,27.2,20.6,30.32,WSW,246,0.0,0.0,76,0.00,,---,0.00,VWS V14.01,2013-03-14 03:02:00,
2013-03-13 22:03:00,27.2,21.0,30.32,WSW,246,0.0,0.0,77,0.00,,---,0.00,VWS V14.01,2013-03-14 03:03:00,
2013-03-13 22:04:00,27.2,21.3,30.32,WSW,246,0.0,0.0,78,0.00,,---,0.00,VWS V14.01,2013-03-14 03:04:00,
2013-03-13 22:05:00,27.1,21.2,30.31,WSW,246,0.0,0.0,78,0.00,,---,0.00,VWS V14.01,2013-03-14 03:05:00,
2013-03-13 22:08:00,27.0,21.4,30.31,WSW,246,0.0,0.0,79,0.00,,---,0.00,VWS V14.01,2013-03-14 03:08:00,
2013-03-13 22:09:00,27.0,21.4,30.32,WSW,246,0.0,0.0,79,0.00,,---,0.00,VWS V14.01,2013-03-14 03:09:00,
2013-03-13 22:10:00,27.0,21.4,30.32,WSW,246,0.0,0.0,79,0.00,,---,0.00,VWS V14.01,2013-03-14 03:10:00,
2013-03-13 22:13:00,27.1,21.5,30.32,WSW,246,0.0,0.0,79,0.00,,---,0.00,VWS V14.01,2013-03-14 03:13:00,
2013-03-13 22:14:00,27.1,21.5,30.32,WSW,246,0.0,0.0,79,0.00,,---,0.00,VWS V14.01,2013-03-14 03:14:00,
2013-03-13 22:16:00,27.2,21.3,30.32,WSW,246,0.0,0.0,78,0.00,,---,0.00,VWS V14.01,2013-03-14 03:16:00,
2013-03-13 22:18:00,27.4,21.5,30.32,WSW,246,0.0,0.0,78,0.00,,---,0.00,VWS V14.01,2013-03-14 03:18:00,
2013-03-13 22:19:00,27.5,21.5,30.32,WSW,246,0.0,0.0,78,0.00,,---,0.00,VWS V14.01,2013-03-14 03:19:00,
2013-03-13 22:21:00,27.7,21.1,30.32,WSW,246,0.0,0.0,76,0.00,,---,0.00,VWS V14.01,2013-03-14 03:21:00,
2013-03-13 22:23:00,27.9,21.0,30.32,WSW,246,0.0,0.0,75,0.00,,---,0.00,VWS V14.01,2013-03-14 03:23:00,
2013-03-13 22:24:00,27.9,20.7,30.32,WSW,246,0.0,0.0,74,0.00,,---,0.00,VWS V14.01,2013-03-14 03:24:00,
2013-03-13 22:25:00,28.0,20.8,30.32,WSW,246,0.0,0.0,74,0.00,,---,0.00,VWS V14.01,2013-03-14 03:25:00,
2013-03-13 22:28:00,28.1,20.6,30.32,WSW,246,0.0,0.0,73,0.00,,---,0.00,VWS V14.01,2013-03-14 03:28:00,
2013-03-13 22:29:00,28.1,20.6,30.32,WSW,246,0.0,0.0,73,0.00,,---,0.00,VWS V14.01,2013-03-14 03:29:00,
2013-03-13 22:30:00,28.2,20.7,30.32,WSW,246,0.0,0.0,73,0.00,,---,0.00,VWS V14.01,2013-03-14 03:30:00,
2013-03-13 22:33:00,28.3,20.4,30.32,WSW,246,0.0,0.0,72,0.00,,---,0.00,VWS V14.01,2013-03-14 03:33:00,
2013-03-13 22:34:00,28.3,20.4,30.32,WSW,246,0.0,0.0,72,0.00,,---,0.00,VWS V14.01,2013-03-14 03:34:00,
2013-03-13 22:35:00,28.3,20.8,30.32,WSW,246,0.0,0.0,73,0.00,,---,0.00,VWS V14.01,2013-03-14 03:35:00,
2013-03-13 22:38:00,28.2,21.0,30.31,WSW,246,0.0,0.0,74,0.00,,---,0.00,VWS V14.01,2013-03-14 03:38:00,
2013-03-13 22:39:00,28.2,21.0,30.32,WSW,246,0.0,0.0,74,0.00,,---,0.00,VWS V14.01,2013-03-14 03:39:00,
2013-03-13 22:40:00,28.1,20.9,30.31,WSW,246,0.0,0.0,74,0.00,,---,0.00,VWS V14.01,2013-03-14 03:40:00,
2013-03-13 22:43:00,28.0,20.5,30.32,WSW,246,0.0,0.0,73,0.00,,---,0.00,VWS V14.01,2013-03-14 03:43:00,
2013-03-13 22:44:00,28.1,20.6,30.32,WSW,246,0.0,0.0,73,0.00,,---,0.00,VWS V14.01,2013-03-14 03:44:00,
2013-03-13 22:45:00,28.0,20.2,30.31,WSW,246,0.0,0.0,72,0.00,,---,0.00,VWS V14.01,2013-03-14 03:45:00,
2013-03-13 22:48:00,27.9,20.1,30.31,WSW,246,0.0,0.0,72,0.00,,---,0.00,VWS V14.01,2013-03-14 03:48:00,
2013-03-13 22:49:00,27.8,20.0,30.32,WSW,246,0.0,0.0,72,0.00,,---,0.00,VWS V14.01,2013-03-14 03:49:00,
2013-03-13 22:50:00,27.8,20.0,30.32,WSW,246,0.0,0.0,72,0.00,,---,0.00,VWS V14.01,2013-03-14 03:50:00,
2013-03-13 22:54:00,27.6,19.8,30.32,WSW,246,0.0,0.0,72,0.00,,---,0.00,VWS V14.01,2013-03-14 03:54:00,
2013-03-13 22:55:00,27.5,19.7,30.32,WSW,246,0.0,0.0,72,0.00,,---,0.00,VWS V14.01,2013-03-14 03:55:00,
2013-03-13 22:56:00,27.5,19.7,30.32,WSW,246,0.0,0.0,72,0.00,,---,0.00,VWS V14.01,2013-03-14 03:56:00,
2013-03-13 22:59:00,27.3,19.8,30.32,WSW,246,0.0,0.0,73,0.00,,---,0.00,VWS V14.01,2013-03-14 03:59:00,
2013-03-13 23:03:00,27.1,19.6,30.32,WSW,246,0.0,0.0,73,0.00,,---,0.00,VWS V14.01,2013-03-14 04:03:00,
2013-03-13 23:05:00,27.0,19.5,30.31,WSW,246,0.0,0.0,73,0.00,,---,0.00,VWS V14.01,2013-03-14 04:05:00,
2013-03-13 23:08:00,26.9,19.4,30.31,WSW,246,0.0,0.0,73,0.00,,---,0.00,VWS V14.01,2013-03-14 04:08:00,
2013-03-13 23:10:00,26.9,19.7,30.31,WSW,246,0.0,0.0,74,0.00,,---,0.00,VWS V14.01,2013-03-14 04:10:00,
2013-03-13 23:13:00,26.8,19.6,30.31,WSW,246,0.0,0.0,74,0.00,,---,0.00,VWS V14.01,2013-03-14 04:13:00,
2013-03-13 23:14:00,26.8,20.0,30.31,WSW,246,0.0,0.0,75,0.00,,---,0.00,VWS V14.01,2013-03-14 04:14:00,
2013-03-13 23:15:00,26.7,19.9,30.31,WSW,246,0.0,0.0,75,0.00,,---,0.00,VWS V14.01,2013-03-14 04:15:00,
2013-03-13 23:18:00,26.7,19.9,30.31,WSW,246,0.0,0.0,75,0.00,,---,0.00,VWS V14.01,2013-03-14 04:18:00,
2013-03-13 23:19:00,26.7,19.9,30.31,WSW,246,0.0,0.0,75,0.00,,---,0.00,VWS V14.01,2013-03-14 04:19:00,
2013-03-13 23:20:00,26.6,20.1,30.31,WSW,246,0.0,0.0,76,0.00,,---,0.00,VWS V14.01,2013-03-14 04:20:00,
2013-03-13 23:23:00,26.5,20.3,30.31,WSW,246,0.0,0.0,77,0.00,,---,0.00,VWS V14.01,2013-03-14 04:23:00,
2013-03-13 23:24:00,26.5,20.3,30.31,WSW,246,0.0,0.0,77,0.00,,---,0.00,VWS V14.01,2013-03-14 04:24:00,
2013-03-13 23:26:00,26.4,20.2,30.31,WSW,246,0.0,0.0,77,0.00,,---,0.00,VWS V14.01,2013-03-14 04:26:00,
2013-03-13 23:28:00,26.2,19.7,30.32,WSW,246,0.0,0.0,76,0.00,,---,0.00,VWS V14.01,2013-03-14 04:28:00,
2013-03-13 23:29:00,26.2,19.7,30.32,WSW,246,0.0,0.0,76,0.00,,---,0.00,VWS V14.01,2013-03-14 04:29:00,
2013-03-13 23:31:00,26.2,20.0,30.32,WSW,246,0.0,0.0,77,0.00,,---,0.00,VWS V14.01,2013-03-14 04:31:00,
2013-03-13 23:34:00,26.1,20.2,30.31,WSW,246,0.0,0.0,78,0.00,,---,0.00,VWS V14.01,2013-03-14 04:34:00,
2013-03-13 23:36:00,26.0,20.7,30.32,WSW,246,0.0,1.0,80,0.00,,---,0.00,VWS V14.01,2013-03-14 04:36:00,
2013-03-13 23:39:00,25.7,20.7,30.32,WSW,246,0.0,1.0,81,0.00,,---,0.00,VWS V14.01,2013-03-14 04:39:00,
2013-03-13 23:40:00,25.7,21.0,30.32,WSW,246,0.0,1.0,82,0.00,,---,0.00,VWS V14.01,2013-03-14 04:40:00,
2013-03-13 23:41:00,25.6,20.9,30.32,WSW,246,0.0,1.0,82,0.00,,---,0.00,VWS V14.01,2013-03-14 04:41:00,
2013-03-13 23:44:00,25.3,20.6,30.32,WSW,246,0.0,1.0,82,0.00,,---,0.00,VWS V14.01,2013-03-14 04:44:00,
2013-03-13 23:45:00,25.3,20.6,30.32,WSW,246,0.0,1.0,82,0.00,,---,0.00,VWS V14.01,2013-03-14 04:45:00,
2013-03-13 23:46:00,25.2,20.5,30.32,WSW,246,0.0,1.0,82,0.00,,---,0.00,VWS V14.01,2013-03-14 04:46:00,
2013-03-13 23:50:00,25.1,20.4,30.32,WSW,246,0.0,1.0,82,0.00,,---,0.00,VWS V14.01,2013-03-14 04:50:00,
2013-03-13 23:52:00,25.0,20.6,30.32,WSW,246,0.0,1.0,83,0.00,,---,0.00,VWS V14.01,2013-03-14 04:52:00,
2013-03-13 23:55:00,24.9,20.5,30.32,WSW,246,0.0,1.0,83,0.00,,---,0.00,VWS V14.01,2013-03-14 04:55:00,
2013-03-13 23:57:00,24.9,20.5,30.32,WSW,246,0.0,1.0,83,0.00,,---,0.00,VWS V14.01,2013-03-14 04:57:00,